Wall of Fame

Het Mysterie van de Haven

Groepsnaam Tijd over Aantal hints
1 Femke en anouk 01:49:36 0
2 Aalten 01:49:27 0
3 Haaring 01:49:07 0
4 Maan 01:37:45 1
5 SasAr123 01:22:33 2
6 Team Nijmeijer 01:20:55 0
7 Geri 01:20:02 3
8 Effekt Squad 01:17:11 0
9 De havenpopo’s 01:14:48 0
10 Tammy & Mike 01:14:14 3
11 Unicorns 01:13:18 0
12 Cock and Ballzz 01:11:15 0
13 Zegwat 01:11:13 6
14 Out of the Box 01:10:45 0
15 Malestein 01:10:20 0
16 ParadIJsvogels 01:10:16 0
17 Team 414 01:09:44 3
18 De Tudors 01:09:17 0
19 Bijna sexy 01:09:12 0
20 Toevankjes 01:08:34 1
21 Jut en Juul 01:08:32 1
22 Th'Eltons 01:07:44 0
23 Roombusters 01:07:18 0
24 Majomiri 01:07:15 0
25 autobuddys 01:06:54 0
26 Ottjes 01:06:33 0
27 Wollys 01:06:24 0
28 Simonw 01:05:52 0
29 Vogelbuurt 01:05:09 0
30 Team Aster 01:05:01 0
31 De 6 musketiers 01:04:36 0
32 Blekbal 01:04:20 4
33 Bestuur Panacea 2018 01:03:41 0
34 De mannen Dalfsen 01:03:39 0
35 Wilg 01:03:24 0
36 Vivino's 01:02:35 0
37 Wilde jongelingen 01:01:14 0
38 Eller 01:01:12 0
39 Da potato family 01:00:30 3
40 Mathaak 01:00:29 0
41 De Flitsmeisters 01:00:23 1
42 Mulder en co 00:59:57 0
43 Steijlen 00:59:50 0
44 Havenmeesters van de matestraat 00:59:39 0
45 SmartBarth 00:59:09 0
46 TOG op pad 00:58:30 0
47 Weer De Vugten 00:57:25 0
48 Theetop 00:56:54 0
49 Zeeslagje 00:56:42 0
50 Bull 00:56:18 0
51 Slaygirls 00:55:55 0
52 PowerSjonnies 00:55:42 0
53 Bouma’s 00:55:30 0
54 De Noorderlingen 2 00:55:27 2
55 The Turning Bitches 00:55:15 0
56 Oma en de rest 00:55:02 0
57 Tantalus 00:54:40 4
58 De withaartjes 00:54:37 0
59 Jozuahaaltdesnacks 00:54:18 0
60 Spruitjes 00:54:06 1
61 Brambrilie 00:53:50 0
62 Vennetjes 00:53:24 1
63 Eliteam 00:53:16 0
64 NYE_Toppers! 00:53:03 0
65 DeKraaien 00:52:45 0
66 Gilse Club 00:52:27 3
67 Masters van Web 00:52:19 0
68 De zilveruitjes 00:52:07 0
69 Bruggies 00:52:04 2
70 Barteltjes 00:52:00 0
71 Kerst Kast 00:51:55 1
72 MAK Search Team 00:51:54 1
73 VEM 00:51:36 2
74 Snorrovers 00:51:24 0
75 The Black Purrrr 00:51:21 3
76 Uildriks 00:51:15 0
77 Walvis 00:51:02 6
78 De Streek 00:50:50 1
79 Marina's Bultjes 00:50:37 0
80 Madarak 00:50:36 1
81 Rijn 00:49:57 3
82 Commissaris Blauw 32 00:49:54 0
83 Casper&Cheyenne 00:49:50 0
84 De Leo’s 00:49:40 0
85 Fvdh1403 00:49:35 1
86 Clown Kees 00:49:35 0
87 Van Essen 00:49:17 2
88 Schoorlsafari 00:49:04 0
89 DDDtjes 00:48:59 0
90 De wilde Vaart 00:48:42 0
91 Lekker met de Vp begeleiding 00:48:37 0
92 De zeeSTERREN met koffie 00:48:31 1
93 Rietveld 00:48:15 1
94 Teddje 00:48:10 2
95 Groenevelt 00:48:07 0
96 Bolk 00:48:03 0
97 De fliertjes 00:48:01 0
98 De blokk 00:47:58 0
99 The GinkelSquad 00:47:47 0
100 Spijkerrevanche 00:47:45 7
101 De citroenen 00:47:35 1
102 Het karige hutje 00:47:31 1
103 Frucia 00:47:30 0
104 Boembacas 00:47:21 2
105 Die euromast gruppe 00:46:59 0
106 Herres 00:46:59 4
107 zalk 00:46:57 2
108 FnF 00:46:55 0
109 Team Rijnsburg 00:46:50 0
110 Sinterkerstennieuw 00:46:49 0
111 The LEUVE crew 00:46:42 0
112 Tukkers Nieland 00:46:41 1
113 GreenDucks 00:46:32 2
114 Team de paddenstoel 00:46:30 0
115 The Escapistaches 00:46:30 0
116 De vochtige Ari’s 00:46:25 0
117 Doarseveld 00:46:14 3
118 De avocado's 00:46:01 1
119 De Feunen 00:45:59 1
120 FC RISC 00:45:56 0
121 De fraudeurs 00:45:46 12
122 De Engeltjes 00:45:45 3
123 Kroese 00:45:36 0
124 broeklunder 00:45:35 0
125 Kempertjes 00:45:28 2
126 Hagen 00:45:26 0
127 De Sjakies 00:45:19 5
128 Markieparkie 00:45:14 4
129 Vinkentroep 00:45:07 0
130 Hazelnootjes 00:45:06 0
131 TENBRUGGGIES 00:45:02 2
132 Frituurhapjesmix 00:44:57 0
133 De Nachtbrakers 00:44:54 1
134 joGoJoGo 00:44:43 1
135 HoogeVenlo 00:44:39 2
136 Flikken Stakka 00:44:33 2
137 Hsj 00:44:29 10
138 TeamXBeks 00:44:25 5
139 Balkumse Beren 00:44:11 0
140 The Rabbits 00:43:59 0
141 M&M 00:43:52 3
142 De van der Bentjes 00:43:50 7
143 Sankim 00:43:49 4
144 te pakk'n 00:43:47 0
145 Met z'n biertjes 00:43:27 0
146 De leeuwen 00:43:19 3
147 Boekenpootje 00:43:18 1
148 Free Spirits 00:43:17 0
149 BesteHartjes 00:43:16 2
150 De Akkermannen 00:43:13 1
151 De Loser Champignons 00:43:12 2
152 Bruintjes 00:43:05 2
153 Flying mountains 00:42:49 0
154 Mark&Simone 00:42:47 0
155 Yahra 00:42:47 4
156 Zandberguh 00:42:43 0
157 Wenterse genieters 00:42:42 1
158 De drie koffieriers 00:42:42 1
159 Zijlmaatjes 00:42:27 4
160 Maxies 00:42:13 7
161 Misker Family Fun 00:42:10 0
162 Koperenhuwelijk 00:42:02 2
163 BlackFlame 00:41:52 3
164 Koeienlovers 00:41:43 2
165 De dikke bankzitters 00:41:42 4
166 Bungalow Xxx 00:41:41 0
167 TPIJ 00:41:41 11
168 Zwinkies 00:41:37 0
169 De wijsneuzen 00:41:29 1
170 Caljé 00:41:20 5
171 Gesteltjes 00:41:15 2
172 Glas 00:41:12 1
173 Hornstraatjes 00:41:05 0
174 Tovernaars 00:41:03 10
175 Groepje 00:40:58 2
176 Team2 00:40:58 0
177 BBQ matties 00:40:58 1
178 MvAVermaak.nl 00:40:53 1
179 De Strikwerda's 00:40:52 3
180 Team Detective 00:40:46 0
181 Van zutphens 00:40:36 8
182 Paashaas 00:40:31 5
183 Beers Bitches 00:40:31 0
184 De Frikandellengang! 00:40:09 0
185 Remida 00:40:08 2
186 Coppens 00:40:08 2
187 BoekholtBende 00:40:04 1
188 Familyfuntime 00:40:04 1
189 Bro’s before ho’s 00:40:03 0
190 The Jaggermen 00:39:55 0
191 ThoJo 00:39:47 2
192 Nijhuis 00:39:34 0
193 De Killers v2 00:39:33 0
194 Flanmika Rijssen 00:39:21 0
195 SexOnTheBeach 00:39:15 0
196 SiJiSen 00:39:15 1
197 zeelsterhut 00:39:14 0
198 De sjeezers 00:39:11 1
199 Witte Wieven 00:39:10 0
200 Hokkie's 00:39:09 1
201 Corbaatjes 00:38:59 12
202 gifgroene banaan 00:38:58 0
203 Goutier 00:38:48 1
204 Nijzinkbende 00:38:47 6
205 MenM 00:38:39 0
206 ReSuNo 00:38:32 0
207 Hamse gezelligheid 00:38:22 2
208 hartogjes 00:38:15 2
209 smarty's 00:38:08 0
210 Keyless 00:37:57 0
211 De Dunnies 00:37:49 0
212 Chicks b4 dicks 00:37:39 1
213 Kroontjes 00:37:35 0
214 Tonny's pizza clan 00:37:31 0
215 Team Fiasco & Co 00:37:22 0
216 De ijsvogeltjes 715 00:37:21 0
217 Team de Vrueh 00:36:54 3
218 De Bitterballen 00:36:50 2
219 Framily 00:36:50 3
220 Lamberinkjes 00:36:49 2
221 TeamTeunis 00:36:47 2
222 Veekies 00:36:40 4
223 Doppers 00:36:35 4
224 Thierry 00:36:34 0
225 ArLi 00:36:34 2
226 Fammetjes 00:36:30 6
227 JurreKnurre 00:36:29 2
228 Borrelgekend 00:36:21 1
229 Tlntjes 00:36:18 2
230 vol houders 00:36:12 0
231 De Dekkertjes 00:36:11 1
232 Newcourts 00:36:01 3
233 Captains Hoekstra 00:36:01 0
234 Groninger Bitches 00:35:59 1
235 Louise & Mike 00:35:54 10
236 De waalie 00:35:52 3
237 Julia, David en Jonathan 00:35:47 3
238 De Hurms 00:35:38 1
239 De domme koeien 00:35:36 0
240 GBMans 00:35:32 1
241 Huis440 00:35:28 0
242 De Ballies 00:35:27 6
243 Happylife 00:35:20 0
244 Burgers en zo 🍔 00:35:19 2
245 De Knulletjes 00:35:18 4
246 Hessjes 00:35:18 2
247 De nota 00:35:14 5
248 Koetsebakkers 00:35:13 0
249 Schapenkoppen 00:35:06 2
250 Bouwhuisjes+oma 00:35:01 0
251 Harte-Spijker 00:34:59 7
252 poel 00:34:50 3
253 Escapemans 00:34:46 0
254 Pizzasnollen2024 00:34:44 6
255 De koele koes 00:34:42 4
256 Smudge 00:34:34 4
257 De zwemmende eendjes 00:34:33 1
258 Nijpjes 00:34:27 12
259 De Mensinga's 00:34:25 3
260 Veentjes 00:34:19 5
261 DeBeren 00:34:09 4
262 Leersumse dip 00:34:08 0
263 SMTL 00:34:08 1
264 Majiti's 00:33:58 4
265 Mekkelel 00:33:58 5
266 Oordjes 00:33:58 5
267 NPGvanDiemers 00:33:56 2
268 110 00:33:53 4
269 De Krakers 00:33:53 2
270 Warlegganteam NL 00:33:52 1
271 Team Ellende 00:33:49 3
272 Breaking Out 00:33:48 1
273 Niet te kisten 00:33:46 1
274 Puttenaren 00:33:44 2
275 The Streamers 00:33:38 9
276 Ladies Kruut 00:33:30 1
277 Besmile 00:33:29 4
278 Wat is er aan de kwant 00:33:24 8
279 Heemskerk 00:33:17 9
280 De kanisjes 00:33:16 9
281 de huismerels 00:33:11 7
282 FamRAAR 00:33:10 2
283 Friends 00:33:09 5
284 Chantal's Angels 00:32:58 1
285 B100 00:32:57 0
286 Niet erg creatief 00:32:52 3
287 Toverdoosje 00:32:45 0
288 Bremmertjes 00:32:35 4
289 De zusters van BertJaap 00:32:32 2
290 Sleutelcode 00:32:29 1
291 Zwannies 00:32:27 5
292 TEMPVERM 00:32:16 6
293 Tishol 00:32:12 2
294 KILS 00:32:11 2
295 BadHairDay 00:32:02 1
296 Dewestfriezen 00:31:54 7
297 Feller Christmas 00:31:53 0
298 De Groene Buizerd 00:31:52 0
299 Sinqo H 00:31:44 3
300 De Douane 00:31:36 0
301 De bijtjes🐝 00:31:34 11
302 De kwade vliegjes 00:31:32 2
303 De Eetclub 00:31:29 1
304 Flikken veluwe 00:31:27 0
305 The Highlanders 00:31:27 8
306 Steenbergen 00:31:26 2
307 de Baaijvlaaiers 00:31:23 1
308 Vondertjes 00:31:20 0
309 Engevlag 00:31:16 2
310 De Lentebokjes 00:31:15 2
311 De suppers ut Fryslan 00:31:12 6
312 FC balhaar 00:31:07 2
313 De Keels 00:31:04 0
314 Marieke 00:31:02 2
315 Paradijsvogels 00:30:58 7
316 Planetarium 00:30:57 1
317 Symaes en Vander Linden 00:30:57 8
318 Jong&co 00:30:56 1
319 love box 00:30:48 0
320 De Vosjes 00:30:47 0
321 Vrijspeciaal 00:30:45 1
322 Team 63 00:30:41 4
323 LLO 1 00:30:41 0
324 Escape Piet 00:30:35 1
325 huisje 648 00:30:31 3
326 De hunebedden 00:30:23 0
327 De GilseSchans 00:30:20 7
328 Bellista 00:30:19 2
329 Mathoen 00:30:15 4
330 Jungle Jim😛😛😛 00:30:14 8
331 Stapelbed 00:30:09 2
332 Familie Bolte 00:30:09 0
333 Noordgeuzen 00:30:07 4
334 Gezellig 00:30:04 4
335 Strijkjes 00:30:03 4
336 Uniekegroep 00:30:02 3
337 De pronkies 00:30:02 10
338 Christel60 00:30:02 4
339 Lala 00:29:58 6
340 Animatieteam kuierpad + Roderick en Niek 00:29:55 1
341 Boelies rule 00:29:53 1
342 Team bollo 00:29:53 0
343 Jessica & Li Zhan 00:29:51 3
344 Degroot 00:29:48 1
345 Perdokkies 00:29:44 2
346 Non-Sukkies 00:29:43 5
347 De bende 00:29:37 8
348 Verploegies&Smilo 00:29:36 4
349 Wagemannetjes 00:29:34 2
350 Vechtvallei 00:29:32 1
351 31ALPHA 00:29:32 2
352 De Snuggles 00:29:29 5
353 Winnaars voor opa 00:29:27 1
354 De Rolletjes 00:29:27 0
355 De Jong 00:29:23 1
356 Cato en Daan 00:29:23 1
357 10m4delol 00:29:18 5
358 InvestigationCheck 00:29:10 0
359 WeetIkVeel 00:29:07 2
360 Tonnen ketsers 00:29:06 11
361 Sticky Note 00:28:56 1
362 Post weekendje 00:28:49 4
363 Sipkes Quest 00:28:41 3
364 Bamiboy’s 00:28:36 0
365 Binkies 00:28:35 8
366 De Konings 00:28:28 3
367 Lilydora 00:28:26 3
368 Moedig Voorwaarts 00:28:26 0
369 Chickies & Jordy 00:28:25 4
370 40jaargetrouwd 00:28:24 2
371 De Zilvervloot 00:28:15 1
372 Kwarktits 00:28:15 8
373 Coronettes 00:28:15 2
374 Jeneverbes 00:28:15 7
375 Kovacs!!! 00:28:13 4
376 Heijdenmoppies 00:28:10 3
377 Huipies 00:28:08 5
378 Coco bitches 00:28:07 9
379 Dijkstra 00:28:05 4
380 Tante Sjaan 00:28:03 3
381 de wijsneusjes 00:28:03 4
382 MeijHutje 00:28:00 6
383 Meet & Greet 00:27:57 0
384 BeMaiWil 00:27:53 1
385 Buwaldinis 00:27:49 0
386 Segersen 00:27:47 2
387 De Diepgravers 00:27:44 3
388 zooitje ongeregeld 00:27:36 4
389 Sirolf21 00:27:36 1
390 Hotties 00:27:34 3
391 Limi 00:27:31 2
392 Uitje 00:27:29 3
393 Eindhovendegekste 00:27:29 3
394 De Hottub 00:27:28 7
395 Kuipertjes😎 00:27:21 0
396 kotterinkjes 00:27:20 3
397 Ysbekkies 00:27:13 3
398 Boerhof 00:27:06 0
399 Team rood 00:26:59 5
400 Schipper family 00:26:58 2
401 Faasjes 00:26:56 5
402 Havenhunters 00:26:55 8
403 Ome Jan 00:26:54 2
404 C&C 00:26:50 3
405 De Binkies 00:26:39 1
406 VIKO 00:26:32 0
407 Wildenbeest 00:26:25 8
408 Familie van Dopperen 00:26:25 0
409 Helder 00:26:21 3
410 De Nijboertjes 00:26:13 4
411 De patrijzen 00:26:11 11
412 Wijnbergen2 00:26:10 6
413 Fam.Intveen 00:26:08 1
414 Op de camping! 00:26:07 3
415 De Bruijn 00:26:06 1
416 De Nicolaaitjes 00:25:59 7
417 Alphen45 00:25:57 0
418 Gasjes 00:25:57 4
419 Deops 00:25:55 0
420 De Vippies 00:25:53 1
421 Familie Knol 00:25:53 7
422 Ma Flodder 00:25:53 1
423 Annelot&tara 00:25:52 8
424 B&V 00:25:51 8
425 De Bellies 00:25:51 3
426 Gallo Gallo 00:25:50 1
427 Schonewillegies 00:25:49 0
428 Coole gang 00:25:47 4
429 De_toppers 00:25:46 4
430 Poepie 00:25:44 5
431 De beuk er in! 00:25:44 1
432 cafe de paus 00:25:37 3
433 Nina's Crew 00:25:34 2
434 De heymsjes 00:25:32 1
435 Fam Rinsma 00:25:31 0
436 Aa 00:25:31 11
437 NathAnne 00:25:30 8
438 Balkum de gekste 00:25:28 1
439 De Smurfen 00:25:23 3
440 De Klagerjasclub 00:25:22 5
441 Onderzoekers 00:25:20 1
442 De abners 00:25:08 0
443 De arme stakkers 00:25:04 0
444 Hendrik IV 00:25:04 0
445 Keeskazen 00:25:03 3
446 Oempa loempia's 00:25:02 1
447 De wolfjes 00:24:56 11
448 VanDeNoodEenDeugd 00:24:50 5
449 J 00:24:48 3
450 Camping Family 00:24:45 1
451 Braamkes 00:24:43 1
452 Apenluiders 00:24:43 5
453 De Bossche bollen 00:24:43 3
454 Tureluurs 00:24:30 1
455 Grouve Kerst 00:24:29 2
456 Du Lange 00:24:28 3
457 Maaskantjes 00:24:27 1
458 von Neighbours 00:24:23 2
459 Gangsterhuisje510 00:24:20 2
460 Hiphop 00:24:19 9
461 Kamer 237 00:24:17 9
462 ReRe 00:24:11 2
463 Team Ted 00:24:07 3
464 Almelonia's 00:24:06 0
465 Familie kleinjan 00:24:04 0
466 Dongdong 00:24:02 3
467 K-nit with K-nife 00:24:02 0
468 de Japies 00:23:59 9
469 De Dondertjes 00:23:52 2
470 De Vissertjes 00:23:50 2
471 HACKERS 00:23:50 5
472 Berend botje 00:23:48 7
473 De Enkellikkers 00:23:46 0
474 ‘t Kontje 00:23:44 0
475 Efawasa 00:23:43 7
476 Fang gang 00:23:41 5
477 Hallelujah 00:23:35 12
478 De Heidi’s 00:23:26 9
479 Njord 00:23:26 5
480 Baud and the Prangers 00:23:26 1
481 Jaylano’s crew 00:23:24 10
482 Fc 12 minutes 00:23:15 1
483 De bolle 00:23:14 5
484 DeWitPowerrrrrr 00:23:12 1
485 De Erkensjes 00:23:08 8
486 Guardians of the galaxy 00:23:07 4
487 De B.O-veld bende 00:23:06 1
488 De nachtmerries 00:23:06 0
489 Chicka’s uit Twente 00:22:58 2
490 The bomb 00:22:51 0
491 Baileys 00:22:49 5
492 Faijdherbe 00:22:45 6
493 Kolkman! 00:22:44 11
494 Ils20222 00:22:42 0
495 De rare langers 00:22:40 3
496 Joke's posse 00:22:38 1
497 Eisco's 00:22:36 2
498 Leidyk 00:22:36 2
499 Liever te dik in de kist 00:22:31 1
500 Chickolettas 00:22:30 2
501 Wijheij 00:22:28 0
502 Bikkers 00:22:23 4
503 Linda & Martin 00:22:23 4
504 Phil and Claire Dunphy 00:22:20 2
505 Godinnen 00:22:15 3
506 CHOUPAS!!! 00:22:14 0
507 VanSchootjes 00:22:14 11
508 De Familie 00:22:14 4
509 De brinkjes 00:22:13 5
510 Superspeurders 00:22:13 8
511 Vinkman 00:22:09 7
512 7 Koekoeks 00:22:09 0
513 Wei 00:22:08 3
514 Rood 00:22:07 0
515 groetjesvandeburen 00:22:05 9
516 Hrvatska 4 00:22:03 9
517 Lenderink 00:22:02 1
518 Boschwachters 00:22:00 3
519 Westra 00:21:56 3
520 Op JAGT met de Jaggies 00:21:55 1
521 Langkawi 2 00:21:55 2
522 Taksi chauffeur 00:21:54 3
523 De nachtegaal 00:21:46 5
524 Milaaa 00:21:45 11
525 Compleet 00:21:43 1
526 M&M Team 00:21:34 4
527 Evelien en Daan 00:21:33 0
528 SjaMaPaCa 00:21:31 2
529 Bartje 00:21:24 3
530 Kesseltjes 00:21:23 1
531 Spijkermannetjes 00:21:19 11
532 Bart en Miriam 00:21:19 1
533 Thoon 00:21:13 8
534 Waterpolitie 010 00:21:13 2
535 Teamwork kuierpad 00:21:12 12
536 Kuipertjes 00:21:11 4
537 Jomomabastis 00:21:10 4
538 Casa Peters 00:21:08 2
539 Bende van ellende 00:21:05 3
540 De Wiergo’s 00:21:05 3
541 Hioany 00:21:02 5
542 De Platvissen 00:21:02 2
543 Hut(s) 321 00:20:59 6
544 Backstreet Boys 00:20:58 2
545 Fonsie 00:20:57 5
546 DjesModz 00:20:51 12
547 Van Tienen 00:20:45 1
548 KatrienDuckies 00:20:45 3
549 Bibimbap 00:20:41 1
550 Niensel 00:20:40 1
551 Smelikjes 00:20:40 1
552 Kwibus&co 00:20:39 1
553 DIJAMERK 00:20:37 6
554 Snikkertjes 00:20:36 3
555 Strating 00:20:36 2
556 Verheugen 00:20:33 4
557 Visscher 00:20:31 3
558 Bossche Bollen 00:20:31 8
559 Sijmons en co 00:20:30 5
560 High Elbow 00:20:30 1
561 Burgertjes 00:20:29 8
562 JJC en mama’s 00:20:26 9
563 Molenkater 00:20:24 4
564 Redeker 00:20:21 1
565 De Slagers 00:20:20 2
566 WebStone 00:20:13 3
567 De 4 biggetjes 00:20:11 0
568 Hamoen 00:20:09 4
569 TOANARWI 00:20:04 2
570 De ettertjes 00:20:01 3
571 Tokkie’s 00:19:59 12
572 Smits 00:19:58 2
573 De jantjes 00:19:57 0
574 Mamaenzo 00:19:55 3
575 Happy campers 00:19:53 3
576 The power Hardys 00:19:53 0
577 Booem 00:19:49 0
578 De beertjes 00:19:49 5
579 TIKTOKSQUAD 00:19:45 4
580 Fam Havering 00:19:44 1
581 AJ 00:19:39 3
582 Falk 00:19:38 5
583 202 00:19:37 2
584 Mulletjes 00:19:35 3
585 Buurtjes!! 00:19:33 0
586 Alle ballen op Royston 00:19:26 5
587 Cup a Soup 00:19:24 2
588 Wesseltjes 00:19:24 1
589 Piraten 00:19:18 5
590 Alsempies 00:19:10 2
591 De grote Kak 00:19:09 0
592 KiSaTo Van MAC 00:19:09 1
593 The hottubbers 00:19:08 2
594 Voyageurs 00:19:03 1
595 Stresskippen 00:19:02 9
596 De Grolsche Kater 00:19:01 9
597 Rendiertjes 00:18:58 1
598 Beekies 00:18:56 2
599 Dallies 00:18:56 6
600 De SVH 00:18:54 0
601 Carr 00:18:33 2
602 De Hermsehuis band 00:18:32 0
603 Leila 00:18:30 4
604 FC Pannenkoek 00:18:29 4
605 Zus en co 00:18:28 3
606 Wijker 00:18:28 7
607 the mirrors 00:18:26 5
608 MIRACA 00:18:24 3
609 Van Hagen 00:18:23 6
610 Immie's Posse 00:18:22 4
611 Groene Haven 00:18:20 1
612 caravan club 00:18:20 7
613 Knips 00:18:20 8
614 Toors 00:18:20 12
615 Pakewilschaatsen 00:18:13 6
616 Schuluti's in de dop 00:18:12 0
617 De Boertjes 00:18:06 4
618 De puzzelaars 00:18:05 5
619 Vogelhuisje 00:18:03 3
620 Beste van twesten 00:17:59 4
621 Max 00:17:53 4
622 The Vermues 00:17:53 8
623 Beerze Rangers 00:17:50 2
624 DeVuggies5 00:17:47 9
625 Overpelt 00:17:43 3
626 zonnebloempjes 00:17:41 4
627 NIJOKI 00:17:38 1
628 Harold 00:17:37 9
629 peter en de koele kikkers 00:17:35 4
630 VandeRegen 00:17:33 4
631 De Kabbedijkies 00:17:31 5
632 Dejegerdingentjes 00:17:30 1
633 Lekkende balonnen 00:17:29 8
634 Leeuwenburgh 00:17:29 5
635 Poldermannen 00:17:28 0
636 De Cock met COCK 00:17:25 0
637 Fanatiekelingen 00:17:21 3
638 de leeuwtjes 00:17:21 4
639 D3Musketiers 00:17:17 1
640 Kinderman 00:17:17 2
641 Schut 00:17:14 0
642 DE RORO'S 00:17:13 3
643 Koerselman 00:17:09 3
644 Sikking 00:17:09 8
645 De 3 zoetjes 00:17:08 1
646 Bruss-apen 00:17:07 1
647 ZWELILOROFL 00:17:06 1
648 Zomerkamp Bert 00:17:01 0
649 De Bovendeerdjes 00:16:59 2
650 Bobope 00:16:56 4
651 JCL 00:16:56 11
652 DikkeTieten.nl 00:16:52 1
653 Reddingsboeien 00:16:49 4
654 Slopers 00:16:48 4
655 Warm 00:16:47 5
656 Hammetjes 00:16:45 2
657 Peters 00:16:43 3
658 B&B 00:16:41 9
659 IJsvogels 00:16:41 10
660 De Getuige 00:16:35 5
661 Raatelandjes 00:16:34 2
662 Kuuperties 00:16:33 4
663 Tjommie 00:16:31 7
664 Knibbelby 00:16:31 1
665 de Steentjes 00:16:27 2
666 De Havensjaakies 00:16:26 2
667 Vetnekjes 00:16:22 2
668 Youpi 5 00:16:22 7
669 The Sticky Bandits 00:16:20 7
670 Mopje en mopje 00:16:19 2
671 Oversteegjes 00:16:18 6
672 De groene vlag 00:16:14 3
673 Ruitertjes 00:16:13 0
674 Beilerbofkontjes 00:15:58 3
675 Oefoefoe’s 00:15:57 9
676 Bayennie 00:15:55 3
677 Reigâh 00:15:53 0
678 Tinyhousegang 00:15:49 10
679 Agreesieee 00:15:48 5
680 Team Tuinbank 00:15:48 2
681 #Besties 00:15:47 0
682 Boze Belgen 00:15:47 2
683 Maakerwatvan 00:15:42 6
684 Galenkamp 00:15:39 2
685 SterrenWorst 00:15:39 12
686 Veldmannetjes 00:15:31 1
687 Beemsters 00:15:28 1
688 De Wellentjes 00:15:27 0
689 Wounie 00:15:26 3
690 de Graaf 00:15:25 11
691 Ava 00:15:21 5
692 Koele klippers 00:15:19 6
693 Tachtig! 00:15:19 1
694 B-722 00:15:16 6
695 Aikes 00:15:15 3
696 The big 6 00:15:15 2
697 De Elite 00:15:14 1
698 De grootjes 00:15:13 8
699 Muisketiers 00:15:12 7
700 De Teuters 00:15:12 2
701 Poeremetator 00:15:11 3
702 Familie Vermeer 00:15:11 1
703 Aadjenoga 00:15:09 4
704 Charlie 00:15:08 2
705 Sneekjes 00:15:05 4
706 van Leeuwen Prutsers 00:15:05 4
707 Gertie&Gigi 00:15:03 1
708 klavertjevier 00:15:01 8
709 Nijenhussss 00:15:00 5
710 NOXOLOGEN 00:14:58 1
711 Bobingas 00:14:51 5
712 Hotel chaos 00:14:48 2
713 JanEnSophie 00:14:47 3
714 De grote spelers 00:14:43 1
715 Team Floepie 00:14:41 3
716 7 is het nieuwe 6 00:14:38 2
717 Fleva-de verraders 00:14:36 12
718 De dokfjes 00:14:36 6
719 208ers 00:14:35 2
720 De Raatgevers weten raad 00:14:35 2
721 Laura 00:14:34 0
722 De elemansjes 00:14:33 11
723 Familie Lamers 00:14:33 4
724 Paco 00:14:32 2
725 Frandré 00:14:32 2
726 Dombos 00:14:31 3
727 WarSpoor 00:14:29 3
728 Jongdek 00:14:26 3
729 Fultonstraat 00:14:26 3
730 Plukkestijn 00:14:22 1
731 Girl power 00:14:17 4
732 Team fenna 00:14:17 1
733 Sweet Smileys 00:14:15 1
734 DDMTJ 00:14:14 3
735 Burger 00:14:11 2
736 033 00:14:11 9
737 De snelste tijd 00:14:10 0
738 Team Roderick 00:14:10 1
739 Bas Tempert 00:14:10 3
740 Teambaby2022! 00:14:05 2
741 Klamer 00:14:04 0
742 Roosenboom 00:14:03 3
743 Haringkoppen 00:13:55 4
744 De 4 Musketiers 00:13:50 6
745 Otters 00:13:48 4
746 Feel en Nel 00:13:44 10
747 Lisan 00:13:44 5
748 Pansier 00:13:40 8
749 De Pansyhansy's 00:13:38 2
750 Bevers 00:13:38 10
751 Kechsontour 00:13:37 5
752 Margaret60 00:13:37 2
753 Tutti 00:13:37 5
754 Vuggies 00:13:34 5
755 Hagen4 00:13:34 3
756 Blomaardtjes 00:13:32 1
757 De Brulboeien 00:13:32 4
758 M&L 00:13:30 2
759 Tegenwind 00:13:28 2
760 Scharries 00:13:18 2
761 De Steentjes 00:13:17 7
762 Bosuiltjes 00:13:11 3
763 De Ketraket 00:13:11 4
764 Vink2820 00:13:11 2
765 007 00:13:09 1
766 De Kassies 00:13:08 6
767 Techspread 00:13:05 0
768 De spreeuwen 00:13:01 4
769 De vier vosjes 00:12:57 1
770 Heijden 00:12:54 2
771 #TeamZuurkool 00:12:54 6
772 Lekkere wijven 00:12:53 6
773 Jacku 00:12:53 3
774 Houtenhuijsjes 00:12:47 2
775 De fam 00:12:47 1
776 De Snelle Bananen 00:12:41 5
777 Spekkies 00:12:39 1
778 Skoatjes 00:12:36 2
779 Lammetjes 00:12:36 4
780 Sissies 00:12:36 6
781 Bridges & Co 00:12:34 3
782 Awesomeholes 00:12:31 1
783 Louwe Family 00:12:30 0
784 VersluisRotterdam 00:12:30 1
785 Aapie&draakie 00:12:29 1
786 Animaniacs 00:12:29 9
787 De winnaars 00:12:28 6
788 Janjansendekinderen 00:12:26 3
789 Ellerbroekies 00:12:23 1
790 Halimaanrilote 00:12:22 2
791 Team Pony 00:12:21 3
792 Wognumse faalhazen 00:12:16 6
793 The perfect mix 00:12:11 3
794 Postomaatjes 00:12:11 3
795 Giessens 00:12:09 5
796 blokdinnies 00:12:06 7
797 Kwakkenvos 00:12:04 3
798 List & bedrog 00:12:02 2
799 Betsy 00:12:00 9
800 van Bodegraven 00:12:00 12
801 escapies 00:11:57 5
802 Mulderinho's 00:11:57 4
803 2ekanscorona 00:11:56 1
804 Ezelstad 00:11:55 3
805 Pull My Finger 00:11:54 2
806 Schilders 00:11:49 10
807 Gilis 00:11:48 6
808 De verhoevens 00:11:47 10
809 De Houwies 00:11:46 3
810 De Vogelaartjes 00:11:45 7
811 Flodder en De Cock 00:11:40 3
812 Toppers 00:11:38 5
813 MOLECATEN 2022 00:11:37 2
814 Fam Smit 00:11:37 2
815 De F16s 00:11:36 1
816 De verbeekjes 00:11:35 10
817 Hete honden 00:11:33 4
818 Bende van ellende 2022 00:11:32 7
819 the ten berge clan 00:11:32 4
820 Muijsen 00:11:31 7
821 Kruisjes 00:11:27 8
822 Gento’s 00:11:23 2
823 Simjelpakjewel 00:11:23 3
824 Druktemakers 00:11:22 2
825 Wietse en Els 00:11:22 4
826 3 00:11:20 11
827 Witte Wijfjes 00:11:20 1
828 LuAn 00:11:18 4
829 De Kamelenrijders 00:11:16 2
830 Kuipertjes401 00:11:16 3
831 DonenMaris 00:11:11 2
832 Groep 5 00:11:08 12
833 Berend Botje 666 00:11:06 2
834 Joe 00:11:04 3
835 PLAETENAEREN 00:11:03 6
836 Benjabevers 00:11:03 4
837 Fam de Bruijn 00:11:03 2
838 Jermel 00:11:02 10
839 Bouwmeester 00:11:01 3
840 Sjem 00:10:57 2
841 Familie Belger 00:10:54 3
842 De Hangbuikzwijntjes 00:10:53 0
843 Bon Vivants 00:10:53 2
844 De Plekkenpolletjes 00:10:53 7
845 CasadelGancho 00:10:53 3
846 the Rabbits 00:10:50 5
847 KistZonderNaam 00:10:48 1
848 Lm 00:10:48 4
849 DeJagerz 00:10:47 5
850 Kerkjes met An 00:10:47 5
851 Nieuwehuisjes 00:10:43 6
852 JETI 00:10:38 6
853 Sjtuffelke 00:10:38 2
854 Aardappelen in blik 00:10:35 4
855 Kruitjes 00:10:35 1
856 Tollies 00:10:35 5
857 Caittaathalathal 00:10:31 0
858 Fan Flodder 00:10:28 1
859 Piratenfamilie 00:10:27 2
860 Schipsep 00:10:26 0
861 Fantasie uit Overdinkel 00:10:25 0
862 Vrouwenpower1022 00:10:24 8
863 De Tika's 00:10:23 4
864 MiranChris 00:10:21 2
865 Nerds 00:10:20 8
866 De Boerkes 00:10:19 2
867 Houtense Hunters 00:10:16 2
868 De Hetty's 00:10:15 2
869 Oons moe 00:10:15 2
870 De vrouwelijke tarzans 00:10:12 12
871 De Dubieuze Dounairs 00:10:09 2
872 The gold diggers 00:10:08 4
873 De ijsteckels 00:10:08 3
874 hippoo en kikker 00:10:02 4
875 F.L.A.M. 00:10:01 2
876 De Machies 00:09:54 7
877 Molecaten 2.0 00:09:51 6
878 C&A 00:09:49 2
879 De blauwe olifantjes 00:09:42 5
880 team Demas 00:09:41 6
881 TeamNoor 00:09:41 1
882 Meisjes Hogebrink 00:09:41 0
883 Jongkies 00:09:38 5
884 Zandhazen 00:09:36 3
885 AltUndNeu 00:09:33 12
886 Rema 00:09:32 2
887 Harmsie 00:09:30 5
888 Velema 00:09:27 0
889 De kampioenen 00:09:26 1
890 Fam Lokhorst 00:09:25 5
891 Stollies 00:09:22 1
892 Flodder 00:09:19 1
893 Outjes 00:09:18 2
894 Action figures 00:09:14 6
895 TukTuks 00:09:13 2
896 De Snellies 00:09:12 7
897 LUKENS 00:09:11 7
898 Fam. Lambermont 00:09:08 2
899 Team tosti 00:09:00 8
900 Hoefijzer 00:08:59 3
901 de Kalf knallers 00:08:57 5
902 Betuws geluk 00:08:55 4
903 S'jes 00:08:55 0
904 Hendriksen 00:08:53 1
905 Maters hotline 00:08:51 1
906 Ijsbogels 00:08:50 4
907 Meulenrabbitmeer 00:08:50 4
908 Inspector Gadget 2.0 21 00:08:50 3
909 Wij 00:08:45 5
910 Foute gasten 00:08:43 2
911 Scheertjes 00:08:39 5
912 Flanellen Willetje 00:08:38 5
913 Bollo Fanclub 00:08:37 4
914 Lewerissa 00:08:31 8
915 Vredenbregt 00:08:30 4
916 Dipshitties 00:08:30 5
917 MWSK 00:08:28 8
918 Slowliving 00:08:28 2
919 Crusio 00:08:23 4
920 speurneusjanssen 00:08:22 4
921 Ponsteen 00:08:20 2
922 Sarino dames 00:08:20 0
923 Pip&Puk 00:08:17 8
924 Team kist 00:08:14 1
925 Jens is jarig 00:08:14 8
926 Team Merel 00:08:10 3
927 Degelijke ouders 00:08:10 3
928 Sasjormad 00:08:07 11
929 Kaaijts 00:08:03 3
930 De struis 00:08:03 9
931 DeKrakers 00:08:02 4
932 De oudjes 00:07:59 0
933 Fundering 00:07:59 6
934 Haven 00:07:58 0
935 Happy campers 166 00:07:52 11
936 De Kruisjes 00:07:48 4
937 Peter is Beter 00:07:43 0
938 Welling 00:07:41 1
939 Blikboterhamworst 00:07:40 8
940 Hoi 00:07:40 2
941 Veul 00:07:39 6
942 Westerhaar1 00:07:37 0
943 Dory 00:07:37 7
944 De escapers 00:07:36 3
945 Agent109 00:07:35 10
946 De van Opstalletjes 00:07:33 6
947 kapiteinLieke 00:07:33 4
948 Stelma 00:07:31 11
949 Arkeeijks 00:07:26 2
950 Hoofdkantoor vlinder 2 00:07:24 10
951 Louwtjes 00:07:22 2
952 Alpaca 00:07:20 7
953 Groep Awkward 00:07:18 0
954 Koverwijk 00:07:16 11
955 Kaasknabbeltjes 00:07:12 5
956 Douchegel 00:07:10 12
957 Koenen-gang 00:07:09 5
958 CSI bentelo 00:07:06 2
959 Lana’s chicks 00:07:03 3
960 De Amsterdammertjes 00:07:02 7
961 Jules 00:07:02 9
962 De bende van Oss 00:07:01 8
963 Oetje toetjes 00:07:01 2
964 LiefAmmy 00:07:01 12
965 De bomhofjes/Vijgjes 00:07:00 6
966 Kromkamp 00:06:55 0
967 BUL 00:06:51 9
968 Wieggers433 00:06:47 8
969 aecmop 00:06:46 3
970 Annemijn slaapt 00:06:41 6
971 Pirates of carrabean 00:06:41 9
972 Joost mag het weten 00:06:38 7
973 twee keer rechts een keer links 00:06:36 0
974 MaNaTiLiLa 00:06:36 4
975 Stoere fase 00:06:35 4
976 De politie KID 00:06:34 5
977 bolletjes 00:06:29 5
978 Beumers 00:06:27 5
979 Kootjes 00:06:23 5
980 Goyenstraat 00:06:22 4
981 Cor's angels 00:06:21 8
982 Familie Kremers 00:06:21 2
983 The Escape Artists 00:06:17 2
984 Team Princenhage 00:06:15 3
985 BOLLO 00:06:13 3
986 Masterminds 00:06:13 4
987 De Waardtjes met Appel 00:06:11 3
988 Barney's 00:06:08 7
989 Schaapjes 00:06:07 3
990 Zwahili 00:06:06 0
991 YOUPIE 00:06:06 6
992 Boumaatjes 00:06:05 12
993 BiZunder 00:06:00 5
994 Simmerdeis 00:05:56 4
995 Ijsvogeltjes 00:05:54 12
996 Van Bollies 00:05:51 4
997 Glitterdrollen 00:05:50 4
998 wisent 00:05:48 10
999 De Starke 5 00:05:47 5
1000 Nylo’s bbgs❤️🥺 00:05:45 8
1001 Blokkies 00:05:45 12
1002 wintersportsmall 00:05:42 5
1003 Sankris 00:05:30 7
1004 1november2023 00:05:29 7
1005 ‘n Krul 00:05:29 0
1006 de Boefjes 00:05:28 1
1007 Vugts 00:05:25 3
1008 Feestje72 00:05:24 5
1009 Ruud en Yvonne 023 00:05:23 4
1010 Thomas 00:05:20 6
1011 Rcn 00:05:18 1
1012 Tolsma gebroed & co 00:05:17 2
1013 Vossjes2.0 00:05:15 10
1014 Graaffjes 00:05:13 4
1015 Noah 00:05:10 5
1016 OK-Bitches 00:05:09 6
1017 EBergen 00:05:06 5
1018 De Rollaters 00:05:02 4
1019 De smikkelbeertjes 00:05:02 6
1020 de Alblasjes Detectives 00:04:54 12
1021 Dubbelsafe 00:04:54 4
1022 Wasbo’s 00:04:51 5
1023 Veldleeuweriken 00:04:49 4
1024 HugodeGroot 00:04:48 1
1025 Groskamp 00:04:45 1
1026 Leeuwens 00:04:44 2
1027 Het mysterie van de haven 00:04:43 1
1028 Pandas 00:04:42 1
1029 Wurffies 00:04:42 4
1030 Ripie 00:04:41 6
1031 KooijFam 00:04:39 4
1032 Steenberg 00:04:39 11
1033 JIPST 00:04:38 3
1034 Suuman 00:04:32 5
1035 Marseille2023 00:04:32 3
1036 HR LHPO 00:04:31 0
1037 Plantjes 00:04:28 7
1038 Drenthies 00:04:28 4
1039 Buffels 00:04:27 9
1040 rudolf de king 00:04:21 4
1041 Scrocchi grande 00:04:21 7
1042 Tweetjes 00:04:21 2
1043 De wijngooiers 00:04:20 6
1044 Dekcheng 00:04:19 3
1045 De Voorsluijsjes 00:04:19 9
1046 De ontsnappers 00:04:19 3
1047 sewtahani 00:04:18 10
1048 deGraaf 00:04:16 12
1049 Wildebeast & Co 00:04:12 2
1050 The Secret Hunters 00:04:11 4
1051 Hagbloem35 00:04:11 3
1052 Kokshoorn 00:04:11 4
1053 Zoniet, dan toch 00:04:10 8
1054 Berk 00:04:05 5
1055 Detectives Die en Buh 00:04:02 1
1056 De Valkies 00:03:56 8
1057 De Schippers 00:03:55 5
1058 VanZanten 00:03:54 1
1059 Klabbertjes 00:03:54 4
1060 De sukkels 00:03:52 5
1061 Moltman 00:03:52 1
1062 Kreekies 00:03:48 8
1063 Pouweltjes 00:03:43 3
1064 fam.Roeling 00:03:34 2
1065 Van Triggies 00:03:33 8
1066 Klaar weer... 00:03:32 0
1067 bijlkooten 00:03:32 11
1068 Ain’t no mountain high enough 00:03:30 1
1069 de Zwemmertjes 00:03:30 6
1070 The Clue Crew 00:03:29 4
1071 LR 00:03:28 11
1072 De Eekhoorntjes 00:03:23 5
1073 Kampeerbrothers 00:03:22 6
1074 Nelson Mandela 00:03:21 1
1075 Oeno en de rest 00:03:19 1
1076 Anhajofe 00:03:16 5
1077 POT1 00:03:16 1
1078 de Geiten 00:03:13 5
1079 Kapitein Onderbroek 00:03:09 4
1080 Amendt 00:03:07 12
1081 Snoensels 00:03:05 0
1082 BultEef 00:03:02 4
1083 Papagaai61 00:02:59 4
1084 Nijen🏠 00:02:58 4
1085 Berg 00:02:58 12
1086 Team Putten 00:02:58 5
1087 Nachtuiltjes 00:02:58 4
1088 Boer 00:02:53 10
1089 Escape Derckies 00:02:52 3
1090 De Tebbertjes 00:02:47 3
1091 Hilau 00:02:46 2
1092 TJMS 00:02:45 8
1093 Arendsnest 00:02:44 6
1094 203 00:02:42 4
1095 Geen idee 00:02:40 3
1096 moonrex 00:02:33 7
1097 Kleine Ijsbeer 00:02:31 5
1098 Misty en de Detectives 00:02:26 7
1099 403 00:02:23 7
1100 De Reddertjes 00:02:23 8
1101 De Dikkels 00:02:23 3
1102 Ouwerkerkjes 00:02:23 4
1103 De broemende Gerrie's 00:02:20 7
1104 Penning 00:02:19 6
1105 De slimme vogels 00:02:18 10
1106 Buithorst 00:02:09 11
1107 Jurgen 00:02:08 12
1108 Klein Wassink 00:02:02 3
1109 De Boompiepers 00:02:02 3
1110 Thomas2.0 00:02:02 6
1111 Kluskes 00:02:01 3
1112 de beste lammies 00:01:58 0
1113 Wielewaal 00:01:57 7
1114 Van Dammetjes 00:01:57 2
1115 LEFF 00:01:51 5
1116 Loonstra 00:01:43 4
1117 Van Dijk 00:01:42 3
1118 Vleuten 00:01:42 6
1119 Fryslân 00:01:38 7
1120 Leeuwtjes 00:01:38 5
1121 Semmy s 00:01:32 11
1122 Possie 00:01:31 4
1123 ZIGGYS GANG 00:01:30 12
1124 T L Koef 00:01:28 4
1125 Bakvissen 00:01:27 11
1126 5 Musketiers 00:01:25 7
1127 De blauwe vingers 00:01:23 7
1128 Joep & Co 00:01:22 5
1129 The final braincell 00:01:22 8
1130 De Boskoopse FBI 00:01:21 1
1131 Broekkie 00:01:21 7
1132 Popkens 00:01:20 4
1133 Bloopers 00:01:19 8
1134 De Nollies 00:01:19 4
1135 De Grimmies 00:01:18 3
1136 Kooijtjes 00:01:17 2
1137 CapelseVrinden 00:01:14 8
1138 Disco fever 00:01:07 3
1139 De Familie Leeuwen 00:01:06 10
1140 2/3 ter Schure + koude kant 00:01:05 8
1141 De Fidders 00:01:05 4
1142 HAKJOP 00:01:04 1
1143 SmiemiesDenHaag 00:01:02 6
1144 Hemelvaart2021 00:01:01 5
1145 Boersma&co 00:01:01 7
1146 Soesclub 00:01:01 10
1147 Jehannes de beatle 00:01:01 6
1148 plasjes 00:00:55 5
1149 quandale_dingle 00:00:53 9
1150 Wie in de haven? 00:00:49 6
1151 Sinemesussy’s 00:00:43 5
1152 Gommers 00:00:40 4
1153 Hanse Heultie 00:00:39 6
1154 Team Streng 00:00:39 4
1155 Sjan 00:00:38 4
1156 VBK 00:00:37 6
1157 MoobLockPower 00:00:34 4
1158 de vink 00:00:32 4
1159 BlubBlub 00:00:30 6
1160 HuisjesCol 00:00:29 8
1161 Piratenhiernaast 00:00:28 12
1162 De Wielies! 00:00:26 4
1163 Drie musketiers 00:00:26 5
1164 Limatoma 00:00:20 2
1165 Familie Verkade 00:00:18 6
1166 Schelpdieren 00:00:15 4
1167 Pruijssen 00:00:14 3
1168 sas en mark 00:00:13 1
1169 De salamanders 00:00:11 3
1170 ekkelties 00:00:08 7
1171 GerritenGerda 00:00:08 9
1172 Grolsch United 00:00:07 5
1173 Taeko’s 00:00:07 4
1174 Flodders 00:00:04 8
1175 Smeerkerkies 00:00:03 2
1176 De Henkies 00:00:00 0
1177 Zeebandieten 00:00:00 1
1178 Koelendaal 00:00:00 11
1179 de Schaapjes 00:00:00 8
1180 Jos 00:00:00 8
1181 Buskers 00:00:00 12
1182 Kistkwamdrieuurtelaat 00:00:00 1
1183 HeuvTo 00:00:00 11
1184 EVMTEST5 00:00:00 4
1185 TijnJesse 00:00:00 1
1186 Sjouw 00:00:00 11
1187 Bende van de witven 00:00:00 5
1188 Cordam 00:00:00 2
1189 Lionking 00:00:00 3
1190 De Boewies 00:00:00 12
1191 theEXPLORERS1174 00:00:00 12
1192 Lauzjord 00:00:00 12
1193 Hutspot 00:00:00 6
1194 Strijkers 00:00:00 8
1195 De Wulpjes 00:00:00 12
1196 The Young Ones 00:00:00 7
1197 De Kissies 00:00:00 9
1198 RLSBJ 00:00:00 0
1199 De Engel 00:00:00 3
1200 JRLSB 00:00:00 5
1201 De Macarons 315 00:00:00 11
1202 Pisco Bob 00:00:00 0
1203 BSV 00:00:00 7
1204 Noe 00:00:00 0
1205 C&L 00:00:00 0
1206 PaterJan 00:00:00 0
1207 Snorries 00:00:00 3
1208 Family_on_tour 00:00:00 4
1209 Blauwwitte bende 00:00:00 0
1210 Joopies tuinpaleis 00:00:00 6
1211 Mollies 00:00:00 4
1212 De koekenbakkers 00:00:00 6
1213 Trishtan 00:00:00 1
1214 Kebab 00:00:00 9
1215 Stichting 00:00:00 12
1216 De tokkies 2.0 00:00:00 9
1217 Downies met brownies 00:00:00 7
1218 TT gangers 00:00:00 9
1219 Professionele Prutsers 00:00:00 6
1220 Groepsgesprek 00:00:00 5
1221 De Pluisjes 00:00:00 7
1222 Bruidspaar 00:00:00 8
1223 De ijsvogels 00:00:00 8
1224 Mystery 00:00:00 11
1225 SasJan 00:00:00 6
1226 Kerstlampje 00:00:00 4
1227 Politiegirls 00:00:00 5
1228 The glampers 00:00:00 7
1229 Brugmannetjes 00:00:00 9
1230 Team winnaar 00:00:00 3
1231 De gamergirlz 00:00:00 7
1232 Quadrupple 00:00:00 0
1233 Slimpies 00:00:00 8
1234 Sherlock Holtmans 00:00:00 4
1235 Powerkoppel 00:00:00 10
1236 De Vannestjes 00:00:00 8
1237 Boerderij 00:00:00 5
1238 Heikorntjes 00:00:00 3
1239 Van Loontjes 00:00:00 1
1240 Fan RW 00:00:00 8
1241 Zeeuwse Vink 00:00:00 2
1242 Het Dappere Kerstteam 00:00:00 1
1243 Buf 00:00:00 8
1244 Renkie's 00:00:00 9
1245 Kistebrekers 00:00:00 6
1246 Simpele zieltjes 00:00:00 12
1247 De Fienties 00:00:00 4
1248 Beest 00:00:00 9
1249 De meiden 00:00:00 10
1250 Koekkies 00:00:00 5
1251 Stichting picobello bv 00:00:00 11
1252 The Bears 00:00:00 3
1253 Jongens 00:00:00 5
1254 Dinnies 00:00:00 2
1255 Arenas 00:00:00 6
1256 De Blesser Winnaars 00:00:00 0
1257 BoenSemenFien 00:00:00 12
1258 Dijkblokkies 00:00:00 0
1259 The combats 00:00:00 12
1260 BRUGHUIS 00:00:00 6
1261 Katharinas 9 00:00:00 2
1262 Jens 00:00:00 5
1263 Fam. Bottemannen 00:00:00 1
1264 Arkels 00:00:00 9
1265 De Raamsingel 00:00:00 7
1266 5Werven 00:00:00 7
1267 Wuitejes 00:00:00 6
1268 Defenskist 00:00:00 6
1269 De gouden eikel 00:00:00 12
1270 Stammen+1 00:00:00 3
1271 Team Boetz 00:00:00 4
1272 Dwergen 00:00:00 6
1273 Visser van Veen 00:00:00 7
1274 Fam heerink! 00:00:00 8
1275 De Palinginpakkers 00:00:00 4
1276 snelle haaai 00:00:00 3
1277 The Noobs 00:00:00 9
1278 Bastiaansen 00:00:00 7
1279 Katzendetektei 00:00:00 4
1280 Tissens 00:00:00 3
1281 Hellings1913 00:00:00 9
1282 Viswijf 00:00:00 9
1283 Dokter Dre 00:00:00 11
1284 Team PMD 00:00:00 11
1285 Boompiepers 00:00:00 12
1286 Fam K'nelliz 00:00:00 3
1287 De beste 00:00:00 5
1288 Voorst 00:00:00 4
1289 De Eijkeltjes 00:00:00 3
1290 2+2=bier 00:00:00 2
1291 Kitsenspul23 00:00:00 3
1292 Yukilizzy 00:00:00 3
1293 de Zaagjes 00:00:00 2
1294 Kruisselbrink 00:00:00 7
1295 Stygg svinners 00:00:00 6
1296 De wijve 00:00:00 11
1297 The New Chicks 00:00:00 10
1298 Beste pindakaasgroep 7/8 00:00:00 1
1299 JaNi 00:00:00 6
1300 De Zwaantjes 00:00:00 6
1301 De Mölketiers 00:00:00 7
1302 Hansiesss 00:00:00 10
1303 Hallo 00:00:00 2
1304 Turners 00:00:00 0
1305 Welgoed 00:00:00 5
1306 Lydia60! 00:00:00 9
1307 Snijdelaar 00:00:00 9
1308 Escapers 00:00:00 12
1309 Team Weidelint 00:00:00 0
1310 Tabbakieland 00:00:00 12
1311 Huisje REE 00:00:00 9
1312 Friends from Heemskerk 00:00:00 4
1313 De WannabePros 00:00:00 10
1314 Pillendozen 00:00:00 9
1315 Bakkertjes 00:00:00 7
1316 Bijmcknop 00:00:00 5
1317 Kltwk 00:00:00 8
1318 PloosjeB 00:00:00 0
1319 ROC van Twente 00:00:00 7
1320 de negerzoentjes 00:00:00 9
1321 Tess 00:00:00 6
1322 Beelska’s 00:00:00 7
1323 The Leeksma Champs 00:00:00 9
1324 De Maas-terbreinen 00:00:00 12
1325 Anniversary 00:00:00 11
1326 Groep 1 00:00:00 12
1327 Marit 00:00:00 3
1328 Dorst 00:00:00 8
1329 Aardbeien 00:00:00 4
1330 00:00:00 10
1331 Captain SpackJarrow 00:00:00 6
1332 Veenvell 00:00:00 11
1333 veenvell 00:00:00 3
1334 VanAken 00:00:00 7
1335 Kechies 00:00:00 0
1336 Snepvangers 00:00:00 9
1337 Schneidertjes 00:00:00 0
1338 LiFloSaMen 00:00:00 12
1339 MoBaInRu 00:00:00 3
1340 De Bolle Bollo’s 00:00:00 5
1341 Schreursjes 00:00:00 12
1342 Mystery M’s 00:00:00 8
1343 Gezelligheid op Coldenhove 00:00:00 9
1344 Meijer 00:00:00 0
1345 Jaapenlusanne 00:00:00 10
1346 De Coole Kippen 00:00:00 4
1347 Plantebakjes 00:00:00 0
1348 Spijker6 00:00:00 8
1349 De-Bingo-Winners 00:00:00 7
1350 Team Sneek 00:00:00 6
1351 CasperDekkers! 00:00:00 7
1352 Werffie's 00:00:00 4
1353 De Super Pika’s 00:00:00 9
1354 De stolkse boertjes 00:00:00 4
1355 De 713-tjee 00:00:00 0
1356 De Tuintjes 00:00:00 5
1357 Team Lucas 00:00:00 3
1358 hazelaar 00:00:00 8
1359 Bakker 00:00:00 8
1360 Team Gijs 00:00:00 10
1361 Krukken 00:00:00 9
1362 De Minnetjes 00:00:00 3
1363 De eendjes 00:00:00 5
1364 Brabo's 00:00:00 10
1365 Koele Kikkers 00:00:00 11
1366 De Ra BN ers 00:00:00 3
1367 Bastiaansen 00:00:00 6
1368 De Boompjes 00:00:00 0
1369 Huiskampies 00:00:00 2
1370 Loedermoeders 00:00:00 6
1371 FriteRia 00:00:00 0
1372 De emmy's 00:00:00 8
1373 Bosaventuriers 00:00:00 12
1374 GOONIENEE 00:00:00 4
1375 Hazen & Wezels 00:00:00 3
1376 Zinger-Reiber 00:00:00 9
1377 Biggies 00:00:00 2
1378 Partyanimals 00:00:00 0
1379 Kanters 00:00:00 1
1380 Goudou 00:00:00 4
1381 42 00:00:00 10
1382 Team-o 00:00:00 1
1383 Familie ratjetoe 00:00:00 7
1384 Dirven 00:00:00 5
1385 Familie Betting 00:00:00 4
1386 Josefien10 00:00:00 1
1387 Malaga 00:00:00 2
1388 Unlock 00:00:00 2
1389 Team sombrero bos hé 00:00:00 5
1390 Jo 00:00:00 3
1391 8 BALL 00:00:00 6
1392 Roel&Irma 00:00:00 3
1393 De Ruchti's 00:00:00 6
1394 SuperSanne 00:00:00 7
1395 LPower 00:00:00 11
1396 FLOVAR 00:00:00 5
1397 Atz32 00:00:00 8
1398 Kleef 00:00:00 7
1399 Wolfslag 00:00:00 12
1400 Bar & Jenn 00:00:00 8
1401 Roelofsen&co 00:00:00 0
1402 de Kwartels 00:00:00 1
1403 The Black purrrrr 00:00:00 4
1404 Team Sammie 00:00:00 3
1405 Smitoverweghekmanpas 00:00:00 1
1406 BB33 00:00:00 0
1407 De lemelaars 00:00:00 6
1408 Huisjes 00:00:00 7
1409 The beagles 00:00:00 1
1410 Wij laten ons niet kisten 00:00:00 1
1411 Bussink Power 00:00:00 4
1412 Odd squad 00:00:00 9
1413 Goof&Co 00:00:00 3
1414 Eijkjes 00:00:00 9
1415 De krakers 00:00:00 10
1416 Hollandscheveld 00:00:00 5
1417 Het blauwe leger ESD 00:00:00 4
1418 Hangover 4 00:00:00 3
1419 Pro's 00:00:00 3
1420 Team Smeets 00:00:00 7
1421 Fromthemountain 00:00:00 2
1422 Minkeisjarig 00:00:00 1
1423 De beugels 00:00:00 5
1424 De 9 musketiers 00:00:00 6
1425 Portugaaltjes 00:00:00 5
1426 Bartels 00:00:00 2
1427 Bartels1 00:00:00 0
1428 Vennik 00:00:00 2
1429 Loenatiks 00:00:00 4
1430 Brak 00:00:00 4
1431 Badertjes 00:00:00 9
1432 KelDar 00:00:00 4
1433 Lovebirds 00:00:00 11
1434 Boskampies 00:00:00 11
1435 Ninjago 00:00:00 11
1436 Pino’s 00:00:00 7
1437 Balzak 00:00:00 4
1438 Landal 00:00:00 12
1439 Strampel 00:00:00 7
1440 stevens 00:00:00 6
1441 De Rakkers 00:00:00 6
1442 Pasenclub2021 00:00:00 9
1443 Planet rose 00:00:00 7
1444 Duutshoffies 00:00:00 3
1445 Swennies 00:00:00 8
1446 K3 00:00:00 8
1447 De boompjes 00:00:00 12
1448 Wellmansjes 00:00:00 12
1449 Pijffers 00:00:00 5
1450 Stumpers 00:00:00 5
1451 Netzogek 00:00:00 8
1452 Wietsmokertje 00:00:00 8
1453 FamilyM 00:00:00 5
1454 Sander en Nienke 00:00:00 10
1455 Patatje 00:00:00 2
1456 Camping 00:00:00 6
1457 Iepies 00:00:00 8
1458 De kleine leeuwtjes 00:00:00 8
1459 RabbitHillJM 00:00:00 3
1460 Varkenssanne 00:00:00 1
1461 De kolkies 00:00:00 8
1462 Bitches 00:00:00 3
1463 Geheime agenten 00:00:00 4
1464 Huisje59 00:00:00 2
1465 De Smitties 00:00:00 2
1466 Texeltje 00:00:00 7
1467 NiLiMiNiLiMi 00:00:00 10
1468 MasterTeam 00:00:00 3
1469 Rotterdammers 00:00:00 8
1470 Blackies 00:00:00 6
1471 James Blond 00:00:00 12
1472 Weertjes 00:00:00 5
1473 DePosthoeve 00:00:00 4
1474 geen leuke familie 00:00:00 4
1475 Laajan 00:00:00 8
1476 Diagnaze 00:00:00 5
1477 Carpenters 00:00:00 8
1478 The Boyz 00:00:00 4
1479 Family105 00:00:00 5
1480 Jaxi 00:00:00 8
1481 The Boys 00:00:00 8
1482 Eilandjes 00:00:00 6
1483 Poortvliet 00:00:00 8
1484 BuEen 00:00:00 3
1485 De muisjes venema 00:00:00 1
1486 De Kramers & Robin 00:00:00 6
1487 Lamers225 00:00:00 6
1488 knuppels 00:00:00 3
1489 Loopy Lions 00:00:00 0
1490 De 713-tjes 00:00:00 12
1491 Mastopjes 00:00:00 10
1492 Klokkie 00:00:00 11
1493 FamBijloo 00:00:00 4
1494 Wichertjes 00:00:00 0
1495 The V-Team 00:00:00 3
1496 Mesmetsucces! 00:00:00 6
1497 Malle Henkie 00:00:00 4
1498 De Brouwertjes 00:00:00 5
1499 The Rebbels 00:00:00 3
1500 HAJ hkz zld 00:00:00 8
1501 De Rielse beulen 00:00:00 9
1502 Kasseltjes 00:00:00 11
1503 Fam Poortman 00:00:00 2
1504 De speurneuzen 00:00:00 5
1505 Berend botjes 00:00:00 8
1506 Veneklaas 00:00:00 12
1507 Christmasteam 00:00:00 6
1508 valkjes 00:00:00 10
1509 De cocaïne hunters 00:00:00 6
1510 Lammerts van Bueren 00:00:00 5
1511 Eekhoorn715 00:00:00 5
1512 De Joopies 00:00:00 5
1513 Kuikentjes 00:00:00 5
1514 De bitterballen 00:00:00 3
1515 Dijkxhoorn 00:00:00 6
1516 Liertjes 00:00:00 11
1517 Zaalberg 00:00:00 5
1518 Overbeekjes 00:00:00 4
1519 Masterluuk 00:00:00 9
1520 Kersten 00:00:00 12
1521 De Doorentjes 00:00:00 3
1522 Nieuwkomers 00:00:00 11
1523 De zes van S 00:00:00 12
1524 Powerpannenkoeks 00:00:00 11
1525 KNALA 00:00:00 5
1526 Dupoint 00:00:00 9
1527 Team steenuil 00:00:00 5
1528 PitoKnerpie 00:00:00 9
1529 TijnIse 00:00:00 7
1530 Tiellie-Roetie 00:00:00 7
1531 Jacobs Struik 00:00:00 12
1532 Speklepjes 00:00:00 12
1533 De sjippies 00:00:00 4
1534 SVEH 00:00:00 3
1535 Flikken Zeeland 00:00:00 10
1536 Welages 00:00:00 6
1537 Jorrie 00:00:00 5
1538 Schoutjes 00:00:00 3
1539 Vjennekloetn 00:00:00 5
1540 Cf 00:00:00 2
1541 FamilieGerdes 00:00:00 6
1542 Commanders 00:00:00 3
1543 Escape de Wit 00:00:00 6
1544 Super Zwaap 00:00:00 11
1545 De veluwe 00:00:00 6
1546 Make that the cat wise 00:00:00 6
1547 Fam van de Pavert 00:00:00 8
1548 Veenstra klungels 00:00:00 7
1549 Het boeit mij niks 00:00:00 6
1550 Triest 00:00:00 10
1551 De bergjes 00:00:00 11
1552 Wijnberg 00:00:00 12
1553 De pekelders 00:00:00 10
1554 De Kolhekjes 00:00:00 7
1555 Nu wel 00:00:00 2
1556 Prutsers 00:00:00 0
1557 Team Nijenkampies 00:00:00 11
1558 FF 00:00:00 0
1559 JJ 00:00:00 8
1560 De Pioniers 00:00:00 7
1561 Schoorl&co 00:00:00 7
1562 Svenpapa 00:00:00 9
1563 Hart&Koek 00:00:00 9
1564 Kampeerders 00:00:00 9
1565 NOAD 00:00:00 10
1566 HetSaoOnsLukken! 00:00:00 5
1567 Tuinstra 00:00:00 11
1568 LTK 00:00:00 4
1569 FC Max 00:00:00 6
1570 BeersMill 00:00:00 0
1571 Walletjes 00:00:00 8
1572 De Ruijtenbergies 00:00:00 4
1573 310 00:00:00 8
1574 Reddingstas 00:00:00 3
1575 MirMar 00:00:00 6
1576 Boelies 00:00:00 6
1577 Klunder 00:00:00 10
1578 t'veen 00:00:00 5
1579 GoldenGirls_* 00:00:00 2
1580 De doedels 00:00:00 5
1581 De Witjes 00:00:00 8
1582 Broer van dijk 00:00:00 4
1583 Verbrugge 00:00:00 9
1584 Ties 00:00:00 9
1585 Schummi's 00:00:00 6
1586 Laserkit 00:00:00 6
1587 Casa Kaasje 00:00:00 4
1588 Ruessink 00:00:00 8
1589 Patjanstantho 00:00:00 11
1590 Weuke pankenken 00:00:00 9
1591 De Counter Pounters 00:00:00 7
1592 Maissan 00:00:00 6
1593 Happy familie 00:00:00 2
1594 PELLETJES 00:00:00 4
1595 TILBO’S 00:00:00 3
1596 De Bende van Ellende 00:00:00 8
1597 De Haantjes 00:00:00 6
1598 WiWiWu 00:00:00 4
1599 070ers 00:00:00 7
1600 Houdini 00:00:00 6
1601 Daphne & Yoran 00:00:00 1
1602 Duo Lijo 00:00:00 10
1603 Janssen 00:00:00 11
1604 Dreistein 00:00:00 4
1605 De Bobi’s 2.0 00:00:00 12
1606 De Roze olifant 00:00:00 9
1607 Lizzy 00:00:00 5
1608 Dupger 00:00:00 2
1609 HulseggeBulties 00:00:00 4
1610 Groep 2 00:00:00 0
1611 Janneke en matthijs 00:00:00 5
1612 Peller 00:00:00 5
1613 Scholten 00:00:00 2
1614 fam Kleinjan 00:00:00 4
1615 Polmo 00:00:00 4
1616 De Nozems 00:00:00 11
1617 DeGraaf 00:00:00 4
1618 De baaltjes 00:00:00 10
1619 Stippie en Strepie 00:00:00 6
1620 Wokko&Plonty 00:00:00 8
1621 Kiren 00:00:00 6
1622 Fam.Schellekens 00:00:00 8
1623 Bollo327 00:00:00 12
1624 AapSchaap 00:00:00 9
1625 Fam Deelen 00:00:00 8
1626 de lollypops 00:00:00 5
1627 De chicas 00:00:00 11
1628 Splintertjes 00:00:00 1
1629 Limoenje 00:00:00 9
1630 Molsnollen 00:00:00 5
1631 Van de Gruppies 00:00:00 8
1632 The Big Brains 00:00:00 7
1633 Kloot 00:00:00 8
1634 Carrem 00:00:00 8
1635 Sennes trots 00:00:00 3
1636 Chickenladies 00:00:00 11
1637 de Kleijntjes 00:00:00 5
1638 Nieuwenkampjes 00:00:00 9
1639 Kruijsjes 00:00:00 6
1640 #teamLangedijk 00:00:00 3
1641 lol masters 00:00:00 12
1642 De Drostjes 00:00:00 2
1643 Dijkjes 00:00:00 6
1644 De Oplossers 00:00:00 1
1645 Hero’s 00:00:00 0
1646 Knuf&Co 00:00:00 8
1647 The 8 team 00:00:00 12
1648 EEKHOORN 00:00:00 11
1649 DeMatrozen 00:00:00 2
1650 De Panapadders 00:00:00 3
1651 Brandwel 00:00:00 9
1652 Scheper2.0 00:00:00 8
1653 De Bosmannetjes 00:00:00 5
1654 Kimme Santie 00:00:00 5
1655 Snoepjes 00:00:00 1
1656 The Browns 00:00:00 2
1657 Admiraaltjes 00:00:00 12
1658 Fam. Looij 00:00:00 10
1659 Schootjes 00:00:00 7
1660 Fissa 00:00:00 10
1661 Smeding 00:00:00 11
1662 Offringgons 00:00:00 2
1663 De knallende vijf 00:00:00 11
1664 Foxie Team 00:00:00 6
1665 Hamerslag 00:00:00 9
1666 Martena 00:00:00 6
1667 Fam. Villerius 00:00:00 7
1668 Brinkies 00:00:00 6
1669 De eekhoorns 00:00:00 7
1670 DeOnderkinnen 00:00:00 2
1671 Spruotjes 00:00:00 0
1672 De Jongetjes 00:00:00 8
1673 DDN Hattem 00:00:00 5
1674 De scheetjes 00:00:00 4
1675 50 plus Petra 3-3 00:00:00 12
1676 Lars & Lars 00:00:00 5
1677 Duuk2021 00:00:00 5
1678 De 4 musketiers 00:00:00 10
1679 De Lama's 00:00:00 5
1680 Veerhunters 00:00:00 7
1681 BIKE 00:00:00 7
1682 De terpjes 00:00:00 9
1683 De politiegroep 00:00:00 4
1684 Feniks2 00:00:00 10
1685 Feniks 00:00:00 0
1686 Sander & Kimberley 00:00:00 10
1687 Huisje25 00:00:00 6
1688 Dijksma 00:00:00 12
1689 Bouvies7 00:00:00 7
1690 De Valkjes 00:00:00 1
1691 Vosjes 00:00:00 2
1692 Tenbrinkjes 00:00:00 10
1693 De leeuwtjes 00:00:00 7
1694 Lagemaat35 00:00:00 12
1695 mumimisi 00:00:00 10
1696 Liever te dik in de .... 00:00:00 2
1697 Layla's butlers 00:00:00 7
1698 de Bruijn 00:00:00 8
1699 Floortjes 00:00:00 5
1700 De eekhoorn 00:00:00 10
1701 Dokters Beard 00:00:00 3
1702 Bavianen Wijlens 00:00:00 12
1703 Yvonne&Nienke 00:00:00 6
1704 Schouten 00:00:00 6
1705 Langkawi 00:00:00 0
1706 Johejo 00:00:00 5
1707 SB escape team 00:00:00 4
1708 Veenendaaltjes 00:00:00 2
1709 Vogel 00:00:00 5
1710 Janine+maris 00:00:00 0
1711 DE FRANSWATJES 00:00:00 3
1712 Lensies 00:00:00 2
1713 Reinders 00:00:00 3
1714 Team Rob de Ruiter 00:00:00 5
1715 royco 00:00:00 1
1716 Westerinkjes 00:00:00 4
1717 The Flunx 00:00:00 10
1718 de vandaaltjes 00:00:00 6
1719 Banboekids 00:00:00 8
1720 Brouwer 00:00:00 12
1721 Kokken 00:00:00 12
1722 vandermeeralma 00:00:00 11
1723 Piemels253 00:00:00 8
1724 De reizigers 00:00:00 6
1725 JH 00:00:00 7
1726 Youpyoupyoup 00:00:00 0
1727 IJstaartjes 00:00:00 5
1728 Poeka’s 00:00:00 4
1729 Heuveltjes 00:00:00 10
1730 Marcel en Lynn 00:00:00 4
1731 Hoogesteger 00:00:00 10
1732 Hartjes 00:00:00 6
1733 WES&FEM 00:00:00 6
1734 van den Bergjes 00:00:00 9
1735 Billy&Bollie 00:00:00 6
1736 Ynemaatjes 00:00:00 7
1737 De popcorn poppers 00:00:00 5
1738 Prinsjes 00:00:00 12
1739 Werfjes 00:00:00 12
1740 Mat 00:00:00 0
1741 RB&RB 00:00:00 0
1742 Hagels 00:00:00 4
1743 De Bekertjes 00:00:00 4
1744 Abcouwers 00:00:00 7
1745 Huisje77 00:00:00 7
1746 De Chickies 00:00:00 11
1747 Eekhoorntjes 00:00:00 3
1748 Snelle Brauny's 00:00:00 5
1749 Beushuis 00:00:00 0
1750 Viskraam 00:00:00 3
1751 josan 00:00:00 6
1752 Loetje 00:00:00 7
1753 Niet voor de poes 00:00:00 3
1754 BerlicumPernis 00:00:00 4
1755 Boermannetjes 00:00:00 9
1756 Fam. Power 00:00:00 8
1757 Boris BOEFJES 00:00:00 5
1758 Naccers 00:00:00 6
1759 Realna 00:00:00 5
1760 De Escape-aapjes 00:00:00 10
1761 De Gorties! 00:00:00 1
1762 De Pindakaasjes 00:00:00 4
1763 Autoservicekole 00:00:00 6
1764 De Lions 00:00:00 8
1765 Familieoost! 00:00:00 12
1766 OSG 00:00:00 4
1767 TheFamily 00:00:00 11
1768 Sundaymorning 00:00:00 8
1769 Kwizzwizz 00:00:00 1
1770 Team van Muijen 00:00:00 8
1771 Amsterdam West 00:00:00 10
1772 kabouters 00:00:00 10
1773 De Kr@kers 00:00:00 4
1774 Beukenootjes 00:00:00 4
1775 Goldies 00:00:00 5
1776 Eierpower 00:00:00 5
1777 Test 00:00:00 1
1778 Tobies 00:00:00 6
1779 Ritzerflits 00:00:00 6
1780 Bosjes 00:00:00 10
1781 Licky 00:00:00 7
1782 De Glasjes 00:00:00 5
1783 Erbera216 00:00:00 8
1784 ijtjes 00:00:00 2
1785 Het droomteam 00:00:00 10
1786 Oost 00:00:00 12
1787 Boekel//Gols 00:00:00 5
1788 Brownies 00:00:00 12
1789 HOLY TRINITY 00:00:00 9
1790 we laten ons niet kisten! 00:00:00 8
1791 Versteeg bv 00:00:00 10
1792 Korfies 00:00:00 5
1793 Droge worsten 00:00:00 5
1794 Limari 00:00:00 11
1795 Homburg 00:00:00 1
1796 Verbeekjes 00:00:00 11
1797 Klimmers min 1 00:00:00 8
1798 Familie van Waes 00:00:00 12
1799 Catering de Groot 00:00:00 3
1800 De Dikketives 00:00:00 8
1801 Luuk pro 00:00:00 6
1802 brisa 00:00:00 12
1803 Maasdammertjes 00:00:00 9
1804 222 00:00:00 8
1805 koppelhoentje 00:00:00 11
1806 Bende van Ellende 00:00:00 9
1807 Molletjes 00:00:00 0
1808 Jansen 00:00:00 4
1809 De geestige draak 00:00:00 6
1810 Mysterie W51 00:00:00 7
1811 Ouderkerkjes 00:00:00 9
1812 Zeewolde 00:00:00 3
1813 Denkers 00:00:00 2
1814 Jimmy 00:00:00 6
1815 De geheimzinnige club 00:00:00 4
1816 KAAS 00:00:00 4
1817 Sukkels 00:00:00 7
1818 Vasco 00:00:00 5
1819 The Bugs 00:00:00 8
1820 Fredjes 00:00:00 8
1821 de Kuikentjes 00:00:00 6
1822 - 00:00:00 4
1823 Spierenburgclan 00:00:00 7
1824 Sjanies 00:00:00 3
1825 Huisnummer 68 00:00:00 6
1826 La Familia 00:00:00 5
1827 Harem 00:00:00 5
1828 Camping tokkies 00:00:00 12
1829 Animatie team Kuierpad 2021 00:00:00 2
1830 Hatseflats 00:00:00 12
1831 De gompies 00:00:00 11
1832 Zeeuwtjes 00:00:00 9
1833 Flipsen 00:00:00 6
1834 Roggeveenstreetjes 00:00:00 9
1835 Klos 00:00:00 8
1836 De Kokkies 00:00:00 0
1837 Hhw072 00:00:00 7
1838 Siek & Krul 00:00:00 4
1839 zwijnen 00:00:00 3
1840 FIOD 00:00:00 4
1841 Lonzo 00:00:00 4
1842 Half seuvm 00:00:00 4
1843 JarigeJoost 00:00:00 1
1844 De onesies 00:00:00 10
1845 Friesland 00:00:00 6
1846 De douane 00:00:00 10
1847 Malden's Hoop 00:00:00 6
1848 Yin14jaar 00:00:00 8
1849 Boel 00:00:00 9
1850 Bodhy's Bitches 00:00:00 0
1851 VdH 00:00:00 10
1852 De Kort Kanjers 00:00:00 4
1853 Codekrakers 00:00:00 10
1854 Stello 00:00:00 12
1855 515 JACUZZIHOUSE 00:00:00 8
1856 Vrouwluu 00:00:00 9
1857 Leussink 00:00:00 4
1858 Tedd 00:00:00 4
1859 Krooijkjes 00:00:00 11
1860 Brem 00:00:00 10
1861 Plusjes 00:00:00 9
1862 Team escape BRS 00:00:00 10
1863 Boyoos 00:00:00 5
1864 Souren 00:00:00 6
1865 Kalka 00:00:00 11
1866 Kistslopers 00:00:00 6
1867 Utnaaiers en utbukers 00:00:00 8
1868 TRYEJMK 00:00:00 1
1869 Penamalo 00:00:00 6
1870 De Buurtjes 00:00:00 3
1871 De Gerdaas 00:00:00 4
1872 wilbie 00:00:00 8
1873 FAM VD KOLK 00:00:00 4
1874 De brunies 00:00:00 4
1875 Grootenleeuw 00:00:00 9
1876 MaLiNyJo 00:00:00 8
1877 De dijkjes 00:00:00 11
1878 Remco en Esther 00:00:00 12
1879 De Hermansjes 00:00:00 7
1880 50 jaar getrouwd 00:00:00 6
1881 Hoogeveen 00:00:00 5
1882 De kukelekuutjes 00:00:00 12
1883 Golden Gangsters 119 00:00:00 3
1884 Die DELLER-Kids 00:00:00 6
1885 De pilspiraten 00:00:00 5
1886 Postma 00:00:00 12
1887 FreePuck 00:00:00 5
1888 Hallinkies 00:00:00 2
1889 Voorentjes 00:00:00 2
1890 De Kroontjes 00:00:00 12
1891 De jojo’s 00:00:00 12
1892 Jet en de oudjes 00:00:00 8
1893 De theekopjes 00:00:00 12
1894 MEPCLRY 00:00:00 6
1895 De teletubbies 00:00:00 1
1896 Mama’s en de papa’s 00:00:00 6
1897 De Krakende Kakkers 00:00:00 8
1898 Team Fokkers 00:00:00 4
1899 Team Worstebroodjes 00:00:00 7
1900 Jonkman 00:00:00 11
1901 Fam Rutten 00:00:00 4
1902 Baldadige hennies 00:00:00 9
1903 Fighters 00:00:00 1
1904 Klutertjes 00:00:00 7
1905 De pernukkels 00:00:00 10
1906 Heusies 00:00:00 12
1907 Veltkamp 00:00:00 11
1908 De Baarsjes 00:00:00 6
1909 Club Lindenburg 00:00:00 4
1910 Brookovich 00:00:00 12
1911 Yuki 00:00:00 4
1912 Genieters 00:00:00 5
1913 Wetserparkduifjes 00:00:00 0
1914 Peeterskes 00:00:00 3
1915 Gerrit & Kim 00:00:00 8
1916 DeMulders 00:00:00 11
1917 De elsbeek 00:00:00 10
1918 Smitne 00:00:00 4
1919 van Houtjes 821 00:00:00 4
1920 Marencis 00:00:00 8
1921 Hokkies 00:00:00 2
1922 Aardbei 00:00:00 4
1923 Amsterdam gang 00:00:00 8
1924 Brester :) 00:00:00 6
1925 FEMELIE-H 00:00:00 8
1926 Uil 00:00:00 10
1927 KOKsmuts 00:00:00 11
1928 Spijscultuur 00:00:00 0
1929 Dekkertjes 00:00:00 10
1930 Boersmaatjes 00:00:00 12
1931 De kippie’s 00:00:00 5
1932 Pennies4 00:00:00 10
1933 Nijsingh 00:00:00 7
1934 Appeltje biertje 00:00:00 12
1935 NOAH 00:00:00 11
1936 Kolibri 00:00:00 8
1937 Moleman 00:00:00 5
1938 Enweerdoor 00:00:00 6
1939 Henkies 00:00:00 7
1940 3 Musketiers 00:00:00 11
1941 Wappies 00:00:00 2
1942 Pluusjes01 00:00:00 12
1943 Vlotte mwannen 00:00:00 4
1944 DORGST! 00:00:00 9
1945 Halfje Wit 00:00:00 8
1946 Bryan 00:00:00 2
1947 De Bundy's 00:00:00 8
1948 Tafka282 00:00:00 3
1949 Snelle janne 00:00:00 4
1950 . 00:00:00 7
1951 De groene koetjes 00:00:00 12
1952 JoLaMiMa 00:00:00 3
1953 Cageman 00:00:00 12
1954 De aardappels 00:00:00 12
1955 AVLK 00:00:00 2
1956 Bijna slim 00:00:00 1
1957 Tokkies uit Monnickendam 00:00:00 12
1958 Hunters 00:00:00 12
1959 ramona 00:00:00 12
1960 De Wappies 00:00:00 5
1961 Unglaublich 00:00:00 11
1962 De Nachtegaaltjes 00:00:00 2
1963 kollies 00:00:00 1
1964 Noukies 00:00:00 8
1965 De 3 musketiers 00:00:00 7
1966 Kiekieks 00:00:00 2
1967 qwerty 00:00:00 4
1968 Vosco 00:00:00 5
1969 SnelMil 00:00:00 5
1970 Noorderboertjes 00:00:00 5
1971 TeamKreutzer 00:00:00 3
1972 The harbor detectives 00:00:00 8
1973 Vliegende mossels 00:00:00 1
1974 Cheesypop 00:00:00 4
1975 Molke-444 00:00:00 7
1976 De hoekschewaarders 00:00:00 5
1977 Kill the piñata 00:00:00 6
1978 Betty en patty 00:00:00 10
1979 Enten Fans 00:00:00 3
1980 DIEZE 00:00:00 9
1981 Piraten 00:00:00 8
1982 Klomp 00:00:00 10
1983 Oortluitjes 00:00:00 0
1984 Elpies 00:00:00 11
1985 Team Valerie 00:00:00 3
1986 Hogeling 00:00:00 0
1987 Langeberg 00:00:00 5
1988 Team kaya 00:00:00 5
1989 Veenestars 00:00:00 2
1990 3 coolste BFF’S 00:00:00 7
1991 Sherlock Hoos 00:00:00 4
1992 ‘T Zootje 00:00:00 0
1993 Dream team 00:00:00 3
1994 Roversbende 00:00:00 7
1995 Depoep 00:00:00 6
1996 Huisje305 00:00:00 7
1997 De smints 00:00:00 8
1998 Kloostertjes 00:00:00 12
1999 The Jacobs Family 00:00:00 7
2000 Sharks 00:00:00 4
2001 Snorlax 00:00:00 10
2002 Het is gezelliger zonder joey en tom 00:00:00 0
2003 KWEC 00:00:00 10
2004 SUSSYBAKA's 00:00:00 2
2005 PjÖtterclan 00:00:00 2
2006 Pannenkoeken 00:00:00 3
2007 Gare Gerries 00:00:00 0
2008 Vermeulentjes 00:00:00 11
2009 Poesjesclub 00:00:00 7
2010 Hovestadjes 00:00:00 10
2011 Berkstok 00:00:00 3
2012 Benkies 00:00:00 10
2013 Spruitjes4724 00:00:00 3
2014 Koekoek 00:00:00 6
2015 Wijnland 00:00:00 5
2016 Tokkie 00:00:00 3
2017 3Xwijnen 00:00:00 6
2018 De Snelle Kippen 00:00:00 8
2019 Vetflikkers 00:00:00 2
2020 The Flugels 00:00:00 5
2021 Troostelingen 00:00:00 3
2022 Fuck de corona 00:00:00 0
2023 Robbedoes & Co 00:00:00 5
2024 2gether 00:00:00 6
2025 Boda 00:00:00 4
2026 MaLauBo 00:00:00 1
2027 Arends 00:00:00 8
2028 Dikke mieke 00:00:00 4
2029 Beleven avontuur 00:00:00 12
2030 Team Megchelen 00:00:00 6
2031 Zusters en zwagers 00:00:00 6
2032 Van Marion 00:00:00 8
2033 Team krab 00:00:00 12
2034 Wiebe60 00:00:00 5
2035 Lansinkjes 00:00:00 5
2036 Havenzangers 00:00:00 4
2037 De Slotties 00:00:00 5
2038 De vries 00:00:00 9
2039 Eikenhofjes 00:00:00 0
2040 Mais 00:00:00 2
2041 De Bhattoetjes 00:00:00 5
2042 Koekwauze 00:00:00 1
2043 Boeltjes 00:00:00 8
2044 Rupertjes 00:00:00 5
2045 C 00:00:00 4
2046 Escape Squad 00:00:00 11
2047 Ummy gang 00:00:00 5
2048 Bafaar 00:00:00 5
2049 Smarties 00:00:00 2
2050 De Sminkjes 00:00:00 9
2051 lolmans 00:00:00 8
2052 Bakx 00:00:00 2
2053 aerdts 00:00:00 3
2054 Kerstig 00:00:00 6
2055 Zijlstra Bolsward 00:00:00 8
2056 De Paupers 00:00:00 4
2057 Dappere dodo 00:00:00 3
2058 Kluijtjes 00:00:00 5
2059 Vossen 00:00:00 12
2060 Lasange 00:00:00 8
2061 Vakantiegangers 00:00:00 2
2062 Franken 00:00:00 7
2063 De kraanvogels 00:00:00 8
2064 Groen 00:00:00 2
2065 The stunters 00:00:00 3
2066 Dolly dota 00:00:00 2
2067 De 402 club 00:00:00 8
2068 Braampies 00:00:00 6
2069 Voogies 00:00:00 12
2070 De bonte ridders 00:00:00 8
2071 Postjes 00:00:00 8
2072 Snollebollekes 00:00:00 7
2073 Micmactrekbak 00:00:00 0
2074 Team Babyballa 00:00:00 4
2075 Sterrehiem 00:00:00 8
2076 Oudjes 00:00:00 4
2077 De Zwemmers 00:00:00 7
2078 De Gibanelclub 00:00:00 4
2079 Chaos 00:00:00 12
2080 Bosch 00:00:00 0
2081 NewYearsEve2021 00:00:00 5
2082 scottuutnham 00:00:00 4
2083 Elly 00:00:00 3
2084 B-Team 00:00:00 0
2085 De Engineers 00:00:00 2
2086 fam souverehren 00:00:00 2
2087 Kleinjan 00:00:00 1
2088 Waddenzee 00:00:00 0
2089 Poortvlietjes 00:00:00 9
2090 Het buikorakel 00:00:00 12
2091 Van der Linden 00:00:00 11
2092 De Bergjes 00:00:00 7
2093 De spijkerhaven 00:00:00 6
2094 Maasjes 00:00:00 7
2095 Rodel 00:00:00 10
2096 De uitglijders 00:00:00 5
2097 pink santa 00:00:00 1
2098 FamFaam 00:00:00 4
2099 Gekke Sweersjes 00:00:00 9
2100 Radij 00:00:00 12
2101 Dieseltjes 00:00:00 5
2102 Lange Cremertjes 00:00:00 12
2103 De oepies 00:00:00 7
2104 Juffertjes 00:00:00 10
2105 Stokxies 00:00:00 3
2106 Luc 00:00:00 5
2107 DieVanHuisje333 00:00:00 7
2108 Speurs 00:00:00 9
2109 Bruggen 00:00:00 9
2110 De stoere codekrakers 00:00:00 6
2111 tije en de rest 00:00:00 7
2112 Benbo 00:00:00 6
2113 Het kan friezen het kan dooien 00:00:00 9
2114 Kok-Duif 00:00:00 3
2115 K2 00:00:00 7
2116 Maatjes 00:00:00 6
2117 Lottijn 00:00:00 8
2118 VakantieClub99 00:00:00 12
2119 Stone Squad 00:00:00 2
2120 De inbrekers 00:00:00 10
2121 Billy de hond 00:00:00 8
2122 The Winners 00:00:00 7
2123 Aniek&Nick 00:00:00 4
2124 nederend 00:00:00 12
2125 De Bultjes 00:00:00 6
2126 De Houtense Duif 00:00:00 3
2127 Veekenwintaltijd 00:00:00 10
2128 Kaas 00:00:00 7
2129 Deernties 00:00:00 4
2130 Manage Rensen 00:00:00 7
2131 De twee musketiers 00:00:00 9
2132 The dogs 00:00:00 12
2133 Flapdrollen 00:00:00 0
2134 Bird 00:00:00 7
2135 De voetballers 00:00:00 8
2136 De Nelissen Masters 00:00:00 9
2137 Hato 00:00:00 7
2138 Bruinberg 00:00:00 4
2139 Poldervaartjes 00:00:00 9
2140 Famklein 00:00:00 9
2141 Linschoters 00:00:00 3
2142 De toppers 00:00:00 7
2143 Tony and Ezekiel 00:00:00 11
2144 Fientje63 00:00:00 4
2145 De meulentjes 00:00:00 7
2146 Orakel 00:00:00 6
2147 De Gerrits 00:00:00 6
2148 de dordtsche schappenkoppen 00:00:00 4
2149 team sylvester 00:00:00 3
2150 De wessels 00:00:00 10
2151 Levi van kuijk 00:00:00 4
2152 Ijsvogel265 00:00:00 9
2153 Eaca 00:00:00 7
2154 De Woutertjes 00:00:00 6
2155 FjFj 00:00:00 9
2156 Team Kops 00:00:00 9
2157 Oelewappers 00:00:00 5
2158 Wiebeltenen 00:00:00 7
2159 Bouman 00:00:00 9
2160 Team Kuipers 00:00:00 11
2161 Brinknorg 00:00:00 5
2162 Craats 00:00:00 8
2163 The Bossies 00:00:00 11
2164 De amigo's 00:00:00 5
2165 Zusjes Huizer 00:00:00 6
2166 Arie 00:00:00 8
2167 De Melkjes 00:00:00 1
2168 DJ Swiep 00:00:00 5
2169 MVV Bro 00:00:00 10
2170 Team MARIJEE050 00:00:00 6
2171 Slimpe 00:00:00 10
2172 Rotterdam 00:00:00 5
2173 Spelletjesgekken 00:00:00 1
2174 Lely Astronaut 00:00:00 0
2175 605 00:00:00 12
2176 GruitBlom176 00:00:00 12
2177 Detectives Maij 00:00:00 7
2178 Schmitties 00:00:00 6
2179 De Bommeltjes 00:00:00 6
2180 Stoffels 00:00:00 6
2181 Pepsi 00:00:00 12
2182 Auke 00:00:00 2
2183 De Abcouboys and girls 00:00:00 11
2184 Blieje mollies 00:00:00 11
2185 Jokers 00:00:00 6
2186 Koolmeesjes 00:00:00 11
2187 De Vries 329 00:00:00 11
2188 Floortjes4 00:00:00 11
2189 Van Dalen 00:00:00 6
2190 Lenieminie 00:00:00 11
2191 Eisma 00:00:00 11
2192 Beerze! 00:00:00 7
2193 De bootjes 00:00:00 6
2194 Girlpower 00:00:00 3
2195 Lol 00:00:00 3
2196 Winterjes 00:00:00 6
2197 Neomi+2 00:00:00 12
2198 De Plattelandjes 00:00:00 8
2199 ToNi 00:00:00 4
2200 Fryslân Boppe 00:00:00 8
2201 De-kiddo’s. 00:00:00 9
2202 vliegende bergjes 00:00:00 12
2203 Dubbel D 00:00:00 0
2204 De Laatjes 00:00:00 1
2205 Skippy 00:00:00 1
2206 Scapers 00:00:00 1
2207 Frank 00:00:00 6
2208 Korenhaan079 00:00:00 12
2209 Stromannetjes 00:00:00 9
2210 Jonkhof 00:00:00 8
2211 delangetjes 00:00:00 9
2212 Mammie 00:00:00 12
2213 De gangster kikkers 00:00:00 3
2214 TheMoos 00:00:00 9
2215 Hatseflays 00:00:00 12
2216 Casa Gluteus Maximus 00:00:00 1
2217 De Ontdekkers 00:00:00 6
2218 Meivakantie 00:00:00 6
2219 noegie noegie 00:00:00 11
2220 Bovengemiddeld 00:00:00 7
2221 Wouterse 00:00:00 8
2222 Farty Party 00:00:00 12
2223 de Berkelaars 00:00:00 5
2224 spek en bonen 00:00:00 8
2225 De Buutsies 00:00:00 3
2226 TiSu 00:00:00 3
2227 JessTho 00:00:00 2
2228 't Zwarte Geld 00:00:00 2
2229 Lurkies 00:00:00 5
2230 Kooitjes 00:00:00 4
2231 F 00:00:00 10
2232 Rolf 00:00:00 10
2233 Sander AnneMarie 00:00:00 9
2234 VeenBoer 00:00:00 9
2235 De Ijsvogels 00:00:00 9
2236 Om dat het kan 00:00:00 6
2237 Dat was de wasmachine 00:00:00 12
2238 Anja Horster 00:00:00 3
2239 Bende van 4 00:00:00 7
2240 Kip 00:00:00 7
2241 Dejo777 00:00:00 6
2242 LENNIPS 00:00:00 12
2243 De gekste 00:00:00 5
2244 IJff-power 00:00:00 8
2245 Mulhag 00:00:00 10
2246 Police Stars 00:00:00 5
2247 De Hammies 00:00:00 7
2248 De hogenestjes 00:00:00 0
2249 Ken je dat niet horen dan? 00:00:00 2
2250 De uithalers 00:00:00 2
2251 Hoossies 00:00:00 7
2252 LLO2 00:00:00 0
2253 Duikbrillenclub 00:00:00 8
2254 Ruizendaal 00:00:00 5
2255 Tijd zat 00:00:00 1
2256 Kroesjes 00:00:00 0
2257 De Satisfyers 00:00:00 7
2258 Tabarelli4 00:00:00 2
2259 208 00:00:00 5
2260 Luclynnisa 00:00:00 12
2261 Sevens 00:00:00 12
2262 vdboogaart_heeze 00:00:00 2
2263 Anatoliy 00:00:00 4
2264 Nunspeters 00:00:00 8
2265 Blommetjes 00:00:00 5
2266 Koopman 00:00:00 8
2267 Nijmodijk 00:00:00 9
2268 Tijmboektoe 00:00:00 0
2269 The Ozzies 00:00:00 8
2270 Kroeze 00:00:00 2
2271 Monnickendammers 00:00:00 8
2272 Jagt 00:00:00 4
2273 Haaybaaitjes 00:00:00 10
2274 Fisy 00:00:00 9
2275 Yeah 00:00:00 11
2276 Seob 00:00:00 1
2277 Stefan en Jogé 00:00:00 10
2278 De Ademaatjes 00:00:00 11
2279 Nummer 73 00:00:00 4
2280 Groos 00:00:00 10
2281 MM2 00:00:00 8
2282 Wouters 00:00:00 2
2283 Team VM 00:00:00 12
2284 de bende van ellende 00:00:00 12
2285 Detective Nicholls 00:00:00 9
2286 Dillen 00:00:00 10
2287 De winnaartjes 00:00:00 12
2288 De drietjes 00:00:00 10
2289 Hoekstraat 00:00:00 12
2290 De vanDaaltjes 00:00:00 5
2291 De Slimmerds 00:00:00 4
2292 Jklm 00:00:00 8
2293 Tampies 00:00:00 11
2294 Le grand pantalon 00:00:00 5
2295 Verin 00:00:00 3
2296 Nori Pattatori 00:00:00 3
2297 Wijmengaatjes 00:00:00 7
2298 Zonnebloemen 00:00:00 12
2299 De batra’s 00:00:00 11
2300 Jagers 00:00:00 10
2301 A&B 00:00:00 12
2302 Touhafi's 00:00:00 12
2303 Vijftien 00:00:00 9
2304 Panda’s 00:00:00 7
2305 Gerikini 00:00:00 6
2306 Luna 00:00:00 2
2307 Meesters 00:00:00 5
2308 Femke 00:00:00 0
2309 De Kruiken 00:00:00 12
2310 De limburgers 00:00:00 8
2311 De voetbalclub 00:00:00 9
2312 Robert 00:00:00 9
2313 Lekker met de meiden 00:00:00 8
2314 Aapjes 00:00:00 0
2315 Oma’s kroost 00:00:00 12
2316 Beppen12 00:00:00 10
2317 Haloa 00:00:00 6
2318 Mheentjes 00:00:00 11
2319 De pipo's 00:00:00 7
2320 VdHeulVossen 00:00:00 2
2321 De Valburgjes 00:00:00 4
2322 Team Harrie en Hex 00:00:00 2
2323 Kabouter 00:00:00 2
2324 De gekkies 00:00:00 5
2325 FM2012 00:00:00 3
2326 Baaierlanders 00:00:00 6
2327 Indy 00:00:00 10
2328 Kuifmeesters 00:00:00 9
2329 Champion 00:00:00 0
2330 70’ers 00:00:00 8
2331 Kampherbeek 00:00:00 10
2332 Team Zuidinga 00:00:00 4
2333 Reuzen 00:00:00 4
2334 Ellepel 00:00:00 7
2335 Freerk 00:00:00 6
2336 The Biggest 00:00:00 5
2337 Steenwijkers 00:00:00 5
2338 De van durentjes 00:00:00 5
2339 Visjes 00:00:00 6
2340 FamSpetterbende 00:00:00 6
2341 DeLangeSchlaman 00:00:00 2
2342 Hogewoning 00:00:00 8
2343 Team Jacobs 00:00:00 1
2344 De pino's 00:00:00 5
2345 Smella 00:00:00 7
2346 Goebbels 00:00:00 7
2347 De downies 00:00:00 7
2348 Familie Bosch 00:00:00 6
2349 Brinkies en co 00:00:00 3
2350 Fam 128 00:00:00 5
2351 Familie Koper 00:00:00 8
2352 Barryssss 00:00:00 0
2353 Familie snack 00:00:00 11
2354 Swissdoetz 00:00:00 12
2355 Frankies1408 00:00:00 4
2356 Van Gessel 00:00:00 6
2357 Beekse poppeltjes 00:00:00 6
2358 Familie de gekste 00:00:00 11
2359 Leo 00:00:00 9
2360 Fc tia 00:00:00 0
2361 Pornstars 00:00:00 0
2362 Sara Test STC 00:00:00 0
2363 Lars&demi 00:00:00 10
2364 Mrv budde 00:00:00 0
2365 Groep 1 00:00:00 0
2366 Trust 00:00:00 9
2367 Team Taco 00:00:00 3
2368 Konyo 00:00:00 9
2369 Uithalers 00:00:00 10
2370 OetDrenthe 00:00:00 4
2371 Team Vieze 00:00:00 7
2372 De speurneusjes 00:00:00 0
2373 ME 00:00:00 1
2374 Speurneusjes 00:00:00 3
2375 Sheila c.s. 00:00:00 2
2376 Elly en vrienden 00:00:00 9
2377 Flamingo 00:00:00 4
2378 Geenidee 00:00:00 9
2379 Uithalerbrakkaboys 00:00:00 8
2380 Framilie 00:00:00 8
2381 Pippos 00:00:00 9
2382 eemnes 00:00:00 8
2383 Roggerio en de Lendertjes 00:00:00 10
2384 GermanPotatoes 00:00:00 10
2385 Team Johan 00:00:00 5
2386 Lerpje 00:00:00 1
2387 Viermarken 00:00:00 3
2388 De piraten 00:00:00 6
2389 Animatie 00:00:00 0
2390 Loulou 00:00:00 7
2391 Tralala 00:00:00 0
2392 Family Squad! 00:00:00 0
2393 Testalanus 00:00:00 3
2394 Renkum 00:00:00 10
2395 Team van Nieuwkoop 00:00:00 12
2396 Stuurman 00:00:00 5
2397 van Zonnetjes 00:00:00 11
2398 SWAGNIKOLOVA 00:00:00 12
2399 Mishpoche7 00:00:00 10
2400 Fluit 00:00:00 3
2401 De zandstra’s 00:00:00 0
2402 PluMe 00:00:00 4
2403 Fam van Til 00:00:00 8
2404 De gouden eend 00:00:00 2
2405 Kezen 00:00:00 4
2406 Familie Prutser 00:00:00 8
2407 Halooooo 00:00:00 12
2408 Meulepasjes 00:00:00 10
2409 R 00:00:00 9
2410 Voetsoekers 00:00:00 7
2411 Sein 00:00:00 6
2412 Plushjes 00:00:00 8
2413 Mavus 00:00:00 4
2414 Chicks! <3 00:00:00 0
2415 Moxi beertjes 00:00:00 8
2416 Doede2.0 00:00:00 0
2417 Brabanders 00:00:00 8
2418 de uitvinders 00:00:00 5
2419 See As I 00:00:00 0
2420 Vermuntjes 00:00:00 9
2421 BossFSNP 00:00:00 8
2422 Dennisdanielle 00:00:00 3
2423 Lubbers02 00:00:00 11
2424 Stichting Zonnebloem 00:00:00 6
2425 Habraken08 00:00:00 7
2426 De dinkeltjes 00:00:00 3
2427 40&fabulous 00:00:00 2
2428 Hh 00:00:00 2
2429 haydayqueens 00:00:00 8
2430 De Kist Kracht 00:00:00 2
2431 M 00:00:00 2
2432 De Ojikkers 00:00:00 5
2433 Dezecodewerktvastookniet 00:00:00 0
2434 Slootlandjes 00:00:00 2
2435 De koninkjes 00:00:00 8
2436 De Kroontjes! 00:00:00 12
2437 Speurkuijers 00:00:00 12
2438 Kossel en Koote FM 00:00:00 3
2439 Kistkrakers de grote P 00:00:00 3
2440 Koekenbakkers 00:00:00 4
2441 Speedboat18 00:00:00 7
2442 Jut en Jul 00:00:00 7
2443 Buurtjes 00:00:00 6
2444 den Hartog 00:00:00 10
2445 Otjes 00:00:00 0
2446 Testevm2 00:00:00 0
2447 Puttelenburg 00:00:00 5
2448 FaMo2013 00:00:00 8
2449 Dogger 00:00:00 4
2450 Slager 00:00:00 2
2451 De nichtjes 00:00:00 7
2452 Fam. Pauel 00:00:00 6
2453 The 6 aventoers 00:00:00 8
2454 Hamburgos 00:00:00 6
2455 Mongos 00:00:00 0
2456 We got it 00:00:00 8
2457 MaxFlappieFrits 00:00:00 9
2458 Noelle 00:00:00 0
2459 Mutsen 00:00:00 7
2460 Bruggeman 00:00:00 6
2461 Gerben 00:00:00 5
2462 Casa Blom 00:00:00 11
2463 Ketelbinkies 00:00:00 12
2464 De Bregmannetjes 00:00:00 6
2465 VreFri 00:00:00 4
2466 Gezunes trump 00:00:00 2
2467 Spruit 00:00:00 9
2468 HEIJT 00:00:00 5
2469 De tokkies 00:00:00 8
2470 Bove clan 00:00:00 0
2471 De Beertjes 00:00:00 1
2472 Wij winnen 00:00:00 3
2473 Haarlem 00:00:00 9
2474 Flikken Maastricht 00:00:00 6
2475 Buurtpolitie Verbeeck 00:00:00 7
2476 Prulleke 00:00:00 12
2477 Tito 00:00:00 12
2478 Kiwi 00:00:00 7
2479 MasHoltjes 00:00:00 10
2480 Boschmeesters 00:00:00 7
2481 Zoutjes 00:00:00 6
2482 Speurneuzen 00:00:00 7
2483 Nordwind 00:00:00 12
2484 DeRodeCamper 00:00:00 11
2485 Zilverhuis 00:00:00 3
2486 Wijlens en smit 00:00:00 12
2487 Flomar1 00:00:00 8
2488 Ijsvogel 00:00:00 12
2489 Vlietjes 00:00:00 6
2490 De zeven dwergen 00:00:00 5
2491 78 00:00:00 4
2492 De Dombo,s 00:00:00 2
2493 Foodies 00:00:00 2
2494 Udense Ellende 00:00:00 11
2495 Zuijdervliet 00:00:00 7
2496 De Schepper 00:00:00 10
2497 Flikken 618 00:00:00 12
2498 hemelvaart 00:00:00 6
2499 Team Tok 00:00:00 12
2500 De kikkers 00:00:00 3
2501 Snorlex 00:00:00 6
2502 HulVink 00:00:00 3